Observation data for New Home on 04/21/2019      Previous  Date  Next       Current Mesonet Observations  Soil Data  Daily Summary Page  Observations in Plain Language
KNH1 210500Z 17010KT 18/07 A2987 RMK A01 T01770068  RH  049%=      5-min Rain = 0
KNH1 210501Z 17011KT 18/07 A2987 RMK A01 T01780068  RH  049%=      5-min Rain = 0
KNH1 210502Z 17011KT 18/07 A2987 RMK A01 T01780068  RH  049%=      5-min Rain = 0
KNH1 210503Z 18010KT 18/07 A2987 RMK A01 T01770068  RH  049%=      5-min Rain = 0
KNH1 210504Z 17010KT 18/07 A2987 RMK A01 T01780069  RH  049%=      5-min Rain = 0
KNH1 210505Z 18011KT 18/07 A2987 RMK A01 T01780068  RH  049%=      5-min Rain = 0
KNH1 210506Z 18010KT 18/07 A2987 RMK A01 T01780068  RH  049%=      5-min Rain = 0
KNH1 210507Z 18013KT 18/07 A2987 RMK A01 T01780069  RH  049%=      5-min Rain = 0
KNH1 210508Z 17010KT 18/07 A2987 RMK A01 T01780070  RH  049%=      5-min Rain = 0
KNH1 210509Z 17011KT 18/07 A2987 RMK A01 T01790070  RH  049%=      5-min Rain = 0
KNH1 210510Z 17011KT 18/07 A2987 RMK A01 T01780070  RH  049%=      5-min Rain = 0
KNH1 210511Z 17010KT 18/07 A2987 RMK A01 T01780070  RH  049%=      5-min Rain = 0
KNH1 210512Z 18012KT 18/07 A2987 RMK A01 T01780070  RH  049%=      5-min Rain = 0
KNH1 210513Z 18010KT 18/07 A2987 RMK A01 T01790071  RH  049%=      5-min Rain = 0
KNH1 210514Z 18011KT 18/07 A2987 RMK A01 T01790070  RH  049%=      5-min Rain = 0
KNH1 210515Z 18011KT 18/07 A2987 RMK A01 T01790070  RH  049%=      5-min Rain = 0
KNH1 210516Z 18010KT 18/07 A2987 RMK A01 T01790071  RH  049%=      5-min Rain = 0
KNH1 210517Z 18011KT 18/07 A2987 RMK A01 T01780071  RH  049%=      5-min Rain = 0
KNH1 210518Z 17011KT 18/07 A2987 RMK A01 T01780071  RH  049%=      5-min Rain = 0
KNH1 210519Z 18011KT 18/07 A2987 RMK A01 T01780071  RH  049%=      5-min Rain = 0
KNH1 210520Z 17011KT 18/07 A2987 RMK A01 T01780071  RH  049%=      5-min Rain = 0
KNH1 210521Z 18011KT 18/07 A2987 RMK A01 T01780071  RH  049%=      5-min Rain = 0
KNH1 210522Z 18012KT 18/07 A2987 RMK A01 T01780071  RH  050%=      5-min Rain = 0
KNH1 210523Z 18011KT 18/07 A2987 RMK A01 T01780071  RH  049%=      5-min Rain = 0
KNH1 210524Z 18012KT 18/07 A2987 RMK A01 T01780071  RH  049%=      5-min Rain = 0
KNH1 210525Z 18011KT 18/07 A2987 RMK A01 T01780071  RH  049%=      5-min Rain = 0
KNH1 210526Z 18012KT 18/07 A2987 RMK A01 T01780071  RH  049%=      5-min Rain = 0
KNH1 210527Z 18011KT 18/07 A2987 RMK A01 T01790071  RH  049%=      5-min Rain = 0
KNH1 210528Z 18011KT 18/07 A2987 RMK A01 T01790072  RH  049%=      5-min Rain = 0
KNH1 210529Z 18011KT 18/07 A2987 RMK A01 T01790072  RH  050%=      5-min Rain = 0
KNH1 210530Z 18012KT 18/07 A2987 RMK A01 T01780071  RH  050%=      5-min Rain = 0
KNH1 210531Z 18011KT 18/07 A2987 RMK A01 T01780072  RH  050%=      5-min Rain = 0
KNH1 210532Z 18012KT 18/07 A2987 RMK A01 T01790072  RH  050%=      5-min Rain = 0
KNH1 210533Z 18012KT 18/07 A2987 RMK A01 T01780072  RH  050%=      5-min Rain = 0
KNH1 210534Z 18012KT 18/07 A2987 RMK A01 T01780072  RH  050%=      5-min Rain = 0
KNH1 210535Z 18011KT 18/07 A2987 RMK A01 T01770072  RH  050%=      5-min Rain = 0
KNH1 210536Z 18012KT 18/07 A2987 RMK A01 T01770072  RH  050%=      5-min Rain = 0
KNH1 210537Z 18012KT 18/07 A2987 RMK A01 T01770072  RH  050%=      5-min Rain = 0
KNH1 210538Z 18012KT 18/07 A2987 RMK A01 T01770072  RH  050%=      5-min Rain = 0
KNH1 210539Z 18012KT 18/07 A2987 RMK A01 T01770072  RH  050%=      5-min Rain = 0
KNH1 210540Z 18011KT 18/07 A2987 RMK A01 T01770072  RH  050%=      5-min Rain = 0
KNH1 210541Z 18011KT 18/07 A2987 RMK A01 T01770072  RH  050%=      5-min Rain = 0
KNH1 210542Z 18012KT 18/07 A2987 RMK A01 T01760072  RH  050%=      5-min Rain = 0
KNH1 210543Z 18012KT 18/07 A2987 RMK A01 T01760072  RH  050%=      5-min Rain = 0
KNH1 210544Z 18011KT 18/07 A2987 RMK A01 T01760073  RH  051%=      5-min Rain = 0
KNH1 210545Z 18012KT 18/07 A2987 RMK A01 T01760073  RH  051%=      5-min Rain = 0
KNH1 210546Z 18013KT 18/07 A2987 RMK A01 T01760073  RH  051%=      5-min Rain = 0
KNH1 210547Z 18012KT 18/07 A2987 RMK A01 T01760073  RH  051%=      5-min Rain = 0
KNH1 210548Z 18012KT 18/07 A2987 RMK A01 T01750073  RH  051%=      5-min Rain = 0
KNH1 210549Z 18011KT 17/07 A2987 RMK A01 T01740072  RH  051%=      5-min Rain = 0
KNH1 210550Z 18012KT 17/07 A2986 RMK A01 T01740072  RH  051%=      5-min Rain = 0
KNH1 210551Z 18011KT 17/07 A2986 RMK A01 T01740072  RH  051%=      5-min Rain = 0
KNH1 210552Z 18012KT 17/07 A2987 RMK A01 T01740072  RH  051%=      5-min Rain = 0
KNH1 210553Z 18013KT 17/07 A2987 RMK A01 T01730072  RH  051%=      5-min Rain = 0
KNH1 210554Z 18012KT 17/07 A2987 RMK A01 T01730072  RH  051%=      5-min Rain = 0
KNH1 210555Z 18013KT 17/07 A2987 RMK A01 T01730072  RH  051%=      5-min Rain = 0
KNH1 210556Z 18012KT 17/07 A2987 RMK A01 T01730072  RH  052%=      5-min Rain = 0
KNH1 210557Z 18011KT 17/07 A2987 RMK A01 T01720072  RH  052%=      5-min Rain = 0
KNH1 210558Z 18013KT 17/07 A2987 RMK A01 T01720072  RH  052%=      5-min Rain = 0
KNH1 210559Z 18013KT 17/07 A2987 RMK A01 T01710072  RH  052%=      5-min Rain = 0
KNH1 210600Z 18013KT 17/07 A2987 RMK A01 T01720072  RH  052%=      5-min Rain = 0
KNH1 210601Z 18012KT 17/07 A2987 RMK A01 T01720072  RH  052%=      5-min Rain = 0
KNH1 210602Z 19012KT 17/07 A2987 RMK A01 T01720072  RH  052%=      5-min Rain = 0
KNH1 210603Z 18012KT 17/07 A2987 RMK A01 T01720073  RH  052%=      5-min Rain = 0
KNH1 210604Z 18012KT 17/07 A2987 RMK A01 T01720073  RH  052%=      5-min Rain = 0
KNH1 210605Z 18013KT 17/07 A2987 RMK A01 T01710073  RH  052%=      5-min Rain = 0
KNH1 210606Z 18013KT 17/07 A2987 RMK A01 T01710073  RH  052%=      5-min Rain = 0
KNH1 210607Z 18012KT 17/07 A2987 RMK A01 T01720074  RH  053%=      5-min Rain = 0
KNH1 210608Z 18012KT 17/07 A2987 RMK A01 T01710074  RH  053%=      5-min Rain = 0
KNH1 210609Z 18011KT 17/07 A2987 RMK A01 T01710074  RH  053%=      5-min Rain = 0
KNH1 210610Z 18011KT 17/07 A2987 RMK A01 T01710074  RH  053%=      5-min Rain = 0
KNH1 210611Z 18012KT 17/07 A2987 RMK A01 T01710074  RH  053%=      5-min Rain = 0
KNH1 210612Z 18013KT 17/07 A2987 RMK A01 T01710074  RH  053%=      5-min Rain = 0
KNH1 210613Z 18012KT 17/07 A2987 RMK A01 T01710074  RH  053%=      5-min Rain = 0
KNH1 210614Z 18010KT 17/08 A2987 RMK A01 T01710075  RH  053%=      5-min Rain = 0
KNH1 210615Z 18011KT 17/08 A2987 RMK A01 T01710075  RH  053%=      5-min Rain = 0
KNH1 210616Z 18010KT 17/08 A2987 RMK A01 T01700075  RH  053%=      5-min Rain = 0
KNH1 210617Z 18012KT 17/08 A2987 RMK A01 T01700075  RH  054%=      5-min Rain = 0
KNH1 210618Z 18011KT 17/08 A2987 RMK A01 T01700075  RH  054%=      5-min Rain = 0
KNH1 210619Z 18011KT 17/08 A2987 RMK A01 T01690075  RH  054%=      5-min Rain = 0
KNH1 210620Z 18011KT 17/08 A2987 RMK A01 T01690076  RH  054%=      5-min Rain = 0
KNH1 210621Z 18011KT 17/08 A2987 RMK A01 T01690076  RH  054%=      5-min Rain = 0
KNH1 210622Z 19010KT 17/08 A2987 RMK A01 T01690076  RH  054%=      5-min Rain = 0
KNH1 210623Z 18011KT 17/08 A2987 RMK A01 T01680075  RH  054%=      5-min Rain = 0
KNH1 210624Z 18010KT 17/08 A2987 RMK A01 T01680075  RH  054%=      5-min Rain = 0
KNH1 210625Z 18010KT 17/08 A2987 RMK A01 T01680075  RH  054%=      5-min Rain = 0
KNH1 210626Z 18012KT 17/08 A2987 RMK A01 T01680075  RH  054%=      5-min Rain = 0
KNH1 210627Z 18012KT 17/08 A2987 RMK A01 T01670075  RH  054%=      5-min Rain = 0
KNH1 210628Z 18011KT 17/08 A2987 RMK A01 T01670075  RH  055%=      5-min Rain = 0
KNH1 210629Z 18011KT 17/08 A2987 RMK A01 T01670076  RH  055%=      5-min Rain = 0
KNH1 210630Z 18011KT 17/08 A2987 RMK A01 T01670076  RH  055%=      5-min Rain = 0
KNH1 210631Z 18011KT 17/08 A2987 RMK A01 T01670076  RH  055%=      5-min Rain = 0
KNH1 210632Z 18011KT 17/08 A2987 RMK A01 T01670076  RH  055%=      5-min Rain = 0
KNH1 210633Z 19011KT 17/08 A2987 RMK A01 T01660076  RH  055%=      5-min Rain = 0
KNH1 210634Z 18011KT 17/08 A2987 RMK A01 T01660076  RH  055%=      5-min Rain = 0
KNH1 210635Z 19011KT 17/08 A2987 RMK A01 T01650076  RH  055%=      5-min Rain = 0
KNH1 210636Z 18010KT 17/08 A2987 RMK A01 T01650076  RH  056%=      5-min Rain = 0
KNH1 210637Z 19011KT 17/08 A2987 RMK A01 T01650076  RH  056%=      5-min Rain = 0
KNH1 210638Z 19011KT 16/08 A2987 RMK A01 T01640076  RH  056%=      5-min Rain = 0
KNH1 210639Z 19011KT 16/08 A2987 RMK A01 T01630076  RH  056%=      5-min Rain = 0
KNH1 210640Z 19011KT 16/08 A2987 RMK A01 T01630076  RH  056%=      5-min Rain = 0
KNH1 210641Z 19011KT 16/08 A2987 RMK A01 T01630076  RH  056%=      5-min Rain = 0
KNH1 210642Z 19011KT 16/08 A2987 RMK A01 T01620076  RH  057%=      5-min Rain = 0
KNH1 210643Z 19011KT 16/08 A2987 RMK A01 T01620076  RH  056%=      5-min Rain = 0
KNH1 210644Z 19010KT 16/08 A2987 RMK A01 T01620076  RH  057%=      5-min Rain = 0
KNH1 210645Z 18011KT 16/08 A2987 RMK A01 T01620076  RH  057%=      5-min Rain = 0
KNH1 210646Z 19011KT 16/08 A2987 RMK A01 T01620077  RH  057%=      5-min Rain = 0
KNH1 210647Z 19011KT 16/08 A2987 RMK A01 T01620077  RH  057%=      5-min Rain = 0
KNH1 210648Z 19010KT 16/08 A2987 RMK A01 T01620077  RH  057%=      5-min Rain = 0
KNH1 210649Z 19010KT 16/08 A2987 RMK A01 T01610076  RH  057%=      5-min Rain = 0
KNH1 210650Z 19010KT 16/08 A2987 RMK A01 T01600076  RH  057%=      5-min Rain = 0
KNH1 210651Z 19010KT 16/08 A2987 RMK A01 T01600076  RH  058%=      5-min Rain = 0
KNH1 210652Z 19010KT 16/08 A2987 RMK A01 T01600077  RH  058%=      5-min Rain = 0
KNH1 210653Z 19010KT 16/08 A2987 RMK A01 T01600077  RH  058%=      5-min Rain = 0
KNH1 210654Z 19010KT 16/08 A2987 RMK A01 T01600076  RH  058%=      5-min Rain = 0
KNH1 210655Z 19010KT 16/08 A2987 RMK A01 T01600077  RH  058%=      5-min Rain = 0
KNH1 210656Z 19010KT 16/08 A2987 RMK A01 T01590077  RH  058%=      5-min Rain = 0
KNH1 210657Z 19010KT 16/08 A2987 RMK A01 T01590077  RH  058%=      5-min Rain = 0
KNH1 210658Z 19009KT 16/08 A2987 RMK A01 T01590077  RH  058%=      5-min Rain = 0
KNH1 210659Z 19009KT 16/08 A2987 RMK A01 T01580077  RH  058%=      5-min Rain = 0
KNH1 210700Z 19009KT 16/08 A2987 RMK A01 T01580077  RH  058%=      5-min Rain = 0
KNH1 210701Z 19009KT 16/08 A2987 RMK A01 T01580077  RH  058%=      5-min Rain = 0
KNH1 210702Z 19009KT 16/08 A2987 RMK A01 T01570077  RH  059%=      5-min Rain = 0
KNH1 210703Z 19009KT 16/08 A2987 RMK A01 T01570077  RH  059%=      5-min Rain = 0
KNH1 210704Z 19009KT 16/08 A2987 RMK A01 T01570078  RH  059%=      5-min Rain = 0
KNH1 210705Z 19009KT 16/08 A2987 RMK A01 T01570078  RH  059%=      5-min Rain = 0
KNH1 210706Z 19009KT 16/08 A2987 RMK A01 T01570078  RH  059%=      5-min Rain = 0
KNH1 210707Z 19009KT 16/08 A2987 RMK A01 T01570078  RH  060%=      5-min Rain = 0
KNH1 210708Z 19009KT 16/08 A2987 RMK A01 T01570079  RH  060%=      5-min Rain = 0
KNH1 210709Z 19010KT 16/08 A2987 RMK A01 T01560079  RH  060%=      5-min Rain = 0
KNH1 210710Z 18010KT 16/08 A2987 RMK A01 T01560079  RH  060%=      5-min Rain = 0
KNH1 210711Z 18010KT 16/08 A2987 RMK A01 T01560079  RH  060%=      5-min Rain = 0
KNH1 210712Z 19010KT 16/08 A2986 RMK A01 T01560079  RH  060%=      5-min Rain = 0
KNH1 210713Z 18010KT 16/08 A2986 RMK A01 T01560079  RH  060%=      5-min Rain = 0
KNH1 210714Z 19009KT 16/08 A2987 RMK A01 T01560079  RH  060%=      5-min Rain = 0
KNH1 210715Z 19009KT 16/08 A2987 RMK A01 T01550079  RH  060%=      5-min Rain = 0
KNH1 210716Z 19009KT 15/08 A2987 RMK A01 T01540078  RH  061%=      5-min Rain = 0
KNH1 210717Z 19009KT 15/08 A2986 RMK A01 T01530079  RH  061%=      5-min Rain = 0
KNH1 210718Z 19009KT 15/08 A2987 RMK A01 T01530080  RH  062%=      5-min Rain = 0
KNH1 210719Z 19009KT 15/08 A2987 RMK A01 T01520079  RH  062%=      5-min Rain = 0
KNH1 210720Z 19009KT 15/08 A2987 RMK A01 T01520079  RH  062%=      5-min Rain = 0
KNH1 210721Z 19009KT 15/08 A2987 RMK A01 T01510079  RH  062%=      5-min Rain = 0
KNH1 210722Z 19010KT 15/08 A2987 RMK A01 T01510079  RH  062%=      5-min Rain = 0
KNH1 210723Z 19009KT 15/08 A2987 RMK A01 T01510080  RH  062%=      5-min Rain = 0
KNH1 210724Z 19010KT 15/08 A2987 RMK A01 T01510080  RH  063%=      5-min Rain = 0
KNH1 210725Z 19009KT 15/08 A2986 RMK A01 T01500080  RH  063%=      5-min Rain = 0
KNH1 210726Z 19009KT 15/08 A2987 RMK A01 T01500079  RH  063%=      5-min Rain = 0
KNH1 210727Z 19009KT 15/08 A2987 RMK A01 T01490079  RH  063%=      5-min Rain = 0
KNH1 210728Z 19008KT 15/08 A2986 RMK A01 T01490078  RH  062%=      5-min Rain = 0
KNH1 210729Z 19009KT 15/08 A2986 RMK A01 T01480078  RH  063%=      5-min Rain = 0
KNH1 210730Z 19009KT 15/08 A2986 RMK A01 T01480078  RH  063%=      5-min Rain = 0
KNH1 210731Z 19008KT 15/08 A2986 RMK A01 T01480078  RH  063%=      5-min Rain = 0
KNH1 210732Z 19009KT 15/08 A2986 RMK A01 T01480078  RH  063%=      5-min Rain = 0
KNH1 210733Z 19009KT 15/08 A2986 RMK A01 T01480078  RH  063%=      5-min Rain = 0
KNH1 210734Z 19009KT 15/08 A2986 RMK A01 T01470079  RH  063%=      5-min Rain = 0
KNH1 210735Z 19010KT 15/08 A2986 RMK A01 T01470079  RH  064%=      5-min Rain = 0
KNH1 210736Z 19010KT 15/08 A2986 RMK A01 T01470079  RH  064%=      5-min Rain = 0
KNH1 210737Z 19010KT 15/08 A2986 RMK A01 T01460079  RH  064%=      5-min Rain = 0
KNH1 210738Z 19009KT 15/08 A2986 RMK A01 T01460078  RH  064%=      5-min Rain = 0
KNH1 210739Z 19010KT 15/08 A2986 RMK A01 T01450078  RH  064%=      5-min Rain = 0
KNH1 210740Z 19010KT 15/08 A2986 RMK A01 T01450079  RH  064%=      5-min Rain = 0
KNH1 210741Z 19009KT 15/08 A2986 RMK A01 T01450079  RH  064%=      5-min Rain = 0
KNH1 210742Z 19010KT 15/08 A2986 RMK A01 T01450079  RH  065%=      5-min Rain = 0
KNH1 210743Z 19010KT 15/08 A2986 RMK A01 T01450079  RH  065%=      5-min Rain = 0
KNH1 210744Z 19010KT 14/08 A2986 RMK A01 T01440078  RH  065%=      5-min Rain = 0
KNH1 210745Z 19010KT 14/08 A2986 RMK A01 T01440079  RH  065%=      5-min Rain = 0
KNH1 210746Z 19010KT 14/08 A2986 RMK A01 T01430079  RH  065%=      5-min Rain = 0
KNH1 210747Z 19010KT 14/08 A2986 RMK A01 T01430078  RH  065%=      5-min Rain = 0
KNH1 210748Z 19010KT 14/08 A2986 RMK A01 T01430079  RH  065%=      5-min Rain = 0
KNH1 210749Z 19009KT 14/08 A2986 RMK A01 T01430079  RH  065%=      5-min Rain = 0
KNH1 210750Z 19009KT 14/08 A2986 RMK A01 T01430079  RH  065%=      5-min Rain = 0
KNH1 210751Z 19010KT 14/08 A2986 RMK A01 T01430079  RH  065%=      5-min Rain = 0
KNH1 210752Z 19010KT 14/08 A2986 RMK A01 T01430079  RH  065%=      5-min Rain = 0
KNH1 210753Z 19010KT 14/08 A2986 RMK A01 T01430079  RH  066%=      5-min Rain = 0
KNH1 210754Z 19010KT 14/08 A2986 RMK A01 T01430079  RH  066%=      5-min Rain = 0
KNH1 210755Z 19009KT 14/08 A2986 RMK A01 T01430079  RH  066%=      5-min Rain = 0
KNH1 210756Z 19009KT 14/08 A2986 RMK A01 T01430080  RH  066%=      5-min Rain = 0
KNH1 210757Z 19009KT 14/08 A2986 RMK A01 T01430080  RH  066%=      5-min Rain = 0
KNH1 210758Z 19009KT 14/08 A2986 RMK A01 T01420079  RH  066%=      5-min Rain = 0
KNH1 210759Z 19010KT 14/08 A2986 RMK A01 T01420079  RH  066%=      5-min Rain = 0
KNH1 210800Z 19010KT 14/08 A2986 RMK A01 T01420079  RH  066%=      5-min Rain = 0
KNH1 210801Z 19010KT 14/08 A2986 RMK A01 T01420079  RH  066%=      5-min Rain = 0
KNH1 210802Z 18010KT 14/08 A2986 RMK A01 T01420080  RH  066%=      5-min Rain = 0
KNH1 210803Z 19010KT 14/08 A2986 RMK A01 T01410079  RH  066%=      5-min Rain = 0
KNH1 210804Z 18010KT 14/08 A2986 RMK A01 T01410079  RH  066%=      5-min Rain = 0
KNH1 210805Z 18010KT 14/08 A2986 RMK A01 T01410080  RH  066%=      5-min Rain = 0
KNH1 210806Z 19010KT 14/08 A2986 RMK A01 T01410080  RH  066%=      5-min Rain = 0
KNH1 210807Z 19010KT 14/08 A2986 RMK A01 T01410079  RH  066%=      5-min Rain = 0
KNH1 210808Z 19010KT 14/08 A2986 RMK A01 T01410079  RH  066%=      5-min Rain = 0
KNH1 210809Z 19010KT 14/08 A2986 RMK A01 T01410079  RH  066%=      5-min Rain = 0
KNH1 210810Z 19010KT 14/08 A2985 RMK A01 T01410079  RH  066%=      5-min Rain = 0
KNH1 210811Z 19010KT 14/08 A2986 RMK A01 T01410079  RH  066%=      5-min Rain = 0
KNH1 210812Z 19010KT 14/08 A2985 RMK A01 T01410079  RH  066%=      5-min Rain = 0
KNH1 210813Z 19010KT 14/08 A2985 RMK A01 T01410079  RH  066%=      5-min Rain = 0
KNH1 210814Z 19010KT 14/08 A2985 RMK A01 T01420079  RH  066%=      5-min Rain = 0
KNH1 210815Z 19011KT 14/08 A2985 RMK A01 T01420079  RH  066%=      5-min Rain = 0
KNH1 210816Z 19010KT 14/08 A2985 RMK A01 T01420080  RH  066%=      5-min Rain = 0
KNH1 210817Z 18010KT 14/08 A2985 RMK A01 T01430080  RH  066%=      5-min Rain = 0
KNH1 210818Z 19010KT 14/08 A2985 RMK A01 T01430080  RH  066%=      5-min Rain = 0
KNH1 210819Z 18010KT 14/08 A2985 RMK A01 T01430080  RH  066%=      5-min Rain = 0
KNH1 210820Z 19010KT 14/08 A2985 RMK A01 T01430081  RH  066%=      5-min Rain = 0
KNH1 210821Z 18010KT 14/08 A2985 RMK A01 T01430080  RH  066%=      5-min Rain = 0
KNH1 210822Z 19010KT 14/08 A2985 RMK A01 T01420080  RH  066%=      5-min Rain = 0
KNH1 210823Z 19010KT 14/08 A2985 RMK A01 T01430081  RH  066%=      5-min Rain = 0
KNH1 210824Z 19010KT 14/08 A2985 RMK A01 T01420080  RH  066%=      5-min Rain = 0
KNH1 210825Z 18010KT 14/08 A2985 RMK A01 T01430081  RH  066%=      5-min Rain = 0
KNH1 210826Z 19010KT 14/08 A2985 RMK A01 T01430081  RH  066%=      5-min Rain = 0
KNH1 210827Z 19010KT 14/08 A2985 RMK A01 T01430081  RH  066%=      5-min Rain = 0
KNH1 210828Z 18010KT 14/08 A2985 RMK A01 T01430081  RH  066%=      5-min Rain = 0
KNH1 210829Z 19010KT 14/08 A2985 RMK A01 T01430081  RH  066%=      5-min Rain = 0
KNH1 210830Z 19011KT 14/08 A2985 RMK A01 T01430081  RH  066%=      5-min Rain = 0
KNH1 210831Z 19010KT 14/08 A2985 RMK A01 T01430081  RH  066%=      5-min Rain = 0
KNH1 210832Z 19011KT 14/08 A2985 RMK A01 T01430080  RH  066%=      5-min Rain = 0
KNH1 210833Z 18010KT 14/08 A2985 RMK A01 T01430081  RH  066%=      5-min Rain = 0
KNH1 210834Z 19010KT 14/08 A2985 RMK A01 T01430080  RH  066%=      5-min Rain = 0
KNH1 210835Z 19010KT 14/08 A2985 RMK A01 T01420080  RH  066%=      5-min Rain = 0
KNH1 210836Z 19010KT 14/08 A2985 RMK A01 T01420080  RH  067%=      5-min Rain = 0
KNH1 210837Z 19010KT 14/08 A2985 RMK A01 T01410081  RH  067%=      5-min Rain = 0
KNH1 210838Z 19010KT 14/08 A2985 RMK A01 T01420081  RH  067%=      5-min Rain = 0
KNH1 210839Z 19011KT 14/08 A2985 RMK A01 T01410081  RH  067%=      5-min Rain = 0
KNH1 210840Z 18010KT 14/08 A2985 RMK A01 T01410081  RH  067%=      5-min Rain = 0
KNH1 210841Z 18010KT 14/08 A2985 RMK A01 T01410081  RH  067%=      5-min Rain = 0
KNH1 210842Z 18010KT 14/08 A2985 RMK A01 T01420081  RH  067%=      5-min Rain = 0
KNH1 210843Z 18010KT 14/08 A2985 RMK A01 T01410081  RH  067%=      5-min Rain = 0
KNH1 210844Z 18011KT 14/08 A2985 RMK A01 T01410081  RH  067%=      5-min Rain = 0
KNH1 210845Z 18011KT 14/08 A2985 RMK A01 T01410081  RH  067%=      5-min Rain = 0
KNH1 210846Z 18011KT 14/08 A2985 RMK A01 T01410081  RH  067%=      5-min Rain = 0
KNH1 210847Z 18011KT 14/08 A2985 RMK A01 T01400081  RH  067%=      5-min Rain = 0
KNH1 210848Z 18011KT 14/08 A2985 RMK A01 T01400081  RH  067%=      5-min Rain = 0
KNH1 210849Z 18011KT 14/08 A2985 RMK A01 T01400081  RH  067%=      5-min Rain = 0
KNH1 210850Z 18010KT 14/08 A2985 RMK A01 T01390081  RH  068%=      5-min Rain = 0
KNH1 210851Z 18010KT 14/08 A2985 RMK A01 T01390081  RH  068%=      5-min Rain = 0
KNH1 210852Z 18010KT 14/08 A2985 RMK A01 T01380080  RH  068%=      5-min Rain = 0
KNH1 210853Z 18009KT 14/08 A2985 RMK A01 T01370080  RH  069%=      5-min Rain = 0
KNH1 210854Z 18010KT 14/08 A2985 RMK A01 T01370080  RH  069%=      5-min Rain = 0
KNH1 210855Z 18010KT 14/08 A2985 RMK A01 T01370080  RH  069%=      5-min Rain = 0
KNH1 210856Z 19010KT 14/08 A2985 RMK A01 T01370081  RH  069%=      5-min Rain = 0
KNH1 210857Z 18010KT 14/08 A2985 RMK A01 T01360080  RH  069%=      5-min Rain = 0
KNH1 210858Z 19009KT 14/08 A2985 RMK A01 T01350080  RH  069%=      5-min Rain = 0
KNH1 210859Z 19010KT 13/08 A2985 RMK A01 T01340079  RH  069%=      5-min Rain = 0
KNH1 210900Z 19010KT 13/08 A2985 RMK A01 T01330080  RH  070%=      5-min Rain = 0
KNH1 210901Z 18011KT 13/08 A2985 RMK A01 T01330080  RH  070%=      5-min Rain = 0
KNH1 210902Z 19010KT 13/08 A2985 RMK A01 T01320080  RH  070%=      5-min Rain = 0
KNH1 210903Z 19010KT 13/08 A2985 RMK A01 T01330079  RH  070%=      5-min Rain = 0
KNH1 210904Z 19010KT 13/08 A2985 RMK A01 T01330080  RH  070%=      5-min Rain = 0
KNH1 210905Z 18010KT 13/08 A2985 RMK A01 T01330080  RH  071%=      5-min Rain = 0
KNH1 210906Z 19010KT 13/08 A2985 RMK A01 T01320080  RH  071%=      5-min Rain = 0
KNH1 210907Z 19010KT 13/08 A2985 RMK A01 T01320081  RH  071%=      5-min Rain = 0
KNH1 210908Z 19009KT 13/08 A2985 RMK A01 T01320080  RH  071%=      5-min Rain = 0
KNH1 210909Z 18010KT 13/08 A2985 RMK A01 T01320080  RH  071%=      5-min Rain = 0
KNH1 210910Z 18009KT 13/08 A2985 RMK A01 T01310080  RH  071%=      5-min Rain = 0
KNH1 210911Z 19009KT 13/08 A2985 RMK A01 T01310080  RH  071%=      5-min Rain = 0
KNH1 210912Z 18010KT 13/08 A2985 RMK A01 T01310080  RH  071%=      5-min Rain = 0
KNH1 210913Z 18010KT 13/08 A2985 RMK A01 T01310080  RH  071%=      5-min Rain = 0
KNH1 210914Z 19009KT 13/08 A2984 RMK A01 T01310080  RH  071%=      5-min Rain = 0
KNH1 210915Z 19009KT 13/08 A2984 RMK A01 T01310080  RH  071%=      5-min Rain = 0
KNH1 210916Z 19009KT 13/08 A2984 RMK A01 T01310080  RH  071%=      5-min Rain = 0
KNH1 210917Z 18009KT 13/08 A2984 RMK A01 T01320080  RH  071%=      5-min Rain = 0
KNH1 210918Z 19010KT 13/08 A2984 RMK A01 T01320080  RH  071%=      5-min Rain = 0
KNH1 210919Z 18009KT 13/08 A2984 RMK A01 T01320080  RH  071%=      5-min Rain = 0
KNH1 210920Z 18009KT 13/08 A2984 RMK A01 T01320080  RH  071%=      5-min Rain = 0
KNH1 210921Z 18009KT 13/08 A2984 RMK A01 T01320080  RH  071%=      5-min Rain = 0
KNH1 210922Z 18009KT 13/08 A2984 RMK A01 T01320080  RH  071%=      5-min Rain = 0
KNH1 210923Z 19009KT 13/08 A2984 RMK A01 T01320081  RH  071%=      5-min Rain = 0
KNH1 210924Z 18009KT 13/08 A2984 RMK A01 T01320080  RH  071%=      5-min Rain = 0
KNH1 210925Z 19009KT 13/08 A2984 RMK A01 T01320081  RH  071%=      5-min Rain = 0
KNH1 210926Z 19009KT 13/08 A2985 RMK A01 T01320080  RH  071%=      5-min Rain = 0
KNH1 210927Z 19010KT 13/08 A2985 RMK A01 T01320080  RH  071%=      5-min Rain = 0
KNH1 210928Z 19010KT 13/08 A2985 RMK A01 T01320080  RH  071%=      5-min Rain = 0
KNH1 210929Z 19010KT 13/08 A2985 RMK A01 T01320080  RH  071%=      5-min Rain = 0
KNH1 210930Z 19009KT 13/08 A2985 RMK A01 T01320080  RH  071%=      5-min Rain = 0
KNH1 210931Z 19010KT 13/08 A2984 RMK A01 T01320080  RH  071%=      5-min Rain = 0
KNH1 210932Z 19010KT 13/08 A2984 RMK A01 T01320080  RH  071%=      5-min Rain = 0
KNH1 210933Z 19010KT 13/08 A2984 RMK A01 T01330081  RH  071%=      5-min Rain = 0
KNH1 210934Z 19010KT 13/08 A2984 RMK A01 T01320080  RH  071%=      5-min Rain = 0
KNH1 210935Z 19009KT 13/08 A2984 RMK A01 T01320080  RH  071%=      5-min Rain = 0
KNH1 210936Z 19009KT 13/08 A2985 RMK A01 T01310079  RH  071%=      5-min Rain = 0
KNH1 210937Z 19009KT 13/08 A2985 RMK A01 T01310080  RH  071%=      5-min Rain = 0
KNH1 210938Z 19009KT 13/08 A2985 RMK A01 T01300080  RH  071%=      5-min Rain = 0
KNH1 210939Z 19009KT 13/08 A2985 RMK A01 T01300079  RH  071%=      5-min Rain = 0
KNH1 210940Z 19009KT 13/08 A2984 RMK A01 T01300079  RH  071%=      5-min Rain = 0
KNH1 210941Z 19009KT 13/08 A2984 RMK A01 T01290080  RH  072%=      5-min Rain = 0
KNH1 210942Z 19009KT 13/08 A2985 RMK A01 T01290079  RH  072%=      5-min Rain = 0
KNH1 210943Z 19009KT 13/08 A2985 RMK A01 T01290079  RH  072%=      5-min Rain = 0
KNH1 210944Z 19009KT 13/08 A2985 RMK A01 T01280079  RH  072%=      5-min Rain = 0
KNH1 210945Z 19009KT 13/08 A2985 RMK A01 T01280079  RH  072%=      5-min Rain = 0
KNH1 210946Z 19009KT 13/08 A2985 RMK A01 T01280079  RH  072%=      5-min Rain = 0
KNH1 210947Z 19008KT 13/08 A2984 RMK A01 T01280079  RH  072%=      5-min Rain = 0
KNH1 210948Z 19009KT 13/08 A2984 RMK A01 T01270079  RH  072%=      5-min Rain = 0
KNH1 210949Z 19008KT 13/08 A2984 RMK A01 T01270079  RH  073%=      5-min Rain = 0
KNH1 210950Z 19009KT 13/08 A2984 RMK A01 T01270079  RH  072%=      5-min Rain = 0
KNH1 210951Z 19008KT 13/08 A2984 RMK A01 T01270079  RH  073%=      5-min Rain = 0
KNH1 210952Z 19009KT 13/08 A2984 RMK A01 T01270079  RH  073%=      5-min Rain = 0
KNH1 210953Z 18009KT 13/08 A2984 RMK A01 T01270079  RH  073%=      5-min Rain = 0
KNH1 210954Z 18009KT 13/08 A2984 RMK A01 T01270080  RH  073%=      5-min Rain = 0
KNH1 210955Z 18009KT 13/08 A2984 RMK A01 T01270080  RH  073%=      5-min Rain = 0
KNH1 210956Z 19009KT 13/08 A2985 RMK A01 T01270080  RH  073%=      5-min Rain = 0
KNH1 210957Z 18009KT 13/08 A2984 RMK A01 T01270079  RH  073%=      5-min Rain = 0
KNH1 210958Z 18009KT 13/08 A2984 RMK A01 T01270079  RH  073%=      5-min Rain = 0
KNH1 210959Z 18009KT 13/08 A2984 RMK A01 T01270079  RH  073%=      5-min Rain = 0
KNH1 211000Z 19009KT 13/08 A2984 RMK A01 T01270079  RH  073%=      5-min Rain = 0
KNH1 211001Z 19009KT 13/08 A2984 RMK A01 T01270080  RH  073%=      5-min Rain = 0
KNH1 211002Z 19009KT 13/08 A2984 RMK A01 T01270079  RH  073%=      5-min Rain = 0
KNH1 211003Z 18010KT 13/08 A2984 RMK A01 T01260079  RH  073%=      5-min Rain = 0
KNH1 211004Z 19009KT 13/08 A2984 RMK A01 T01260080  RH  074%=      5-min Rain = 0
KNH1 211005Z 19010KT 13/08 A2984 RMK A01 T01260080  RH  074%=      5-min Rain = 0
KNH1 211006Z 19010KT 13/08 A2984 RMK A01 T01250079  RH  074%=      5-min Rain = 0
KNH1 211007Z 19009KT 13/08 A2984 RMK A01 T01260080  RH  074%=      5-min Rain = 0
KNH1 211008Z 19009KT 13/08 A2984 RMK A01 T01250079  RH  073%=      5-min Rain = 0
KNH1 211009Z 19008KT 13/08 A2984 RMK A01 T01250079  RH  073%=      5-min Rain = 0
KNH1 211010Z 19008KT 13/08 A2984 RMK A01 T01250079  RH  073%=      5-min Rain = 0
KNH1 211011Z 19008KT 13/08 A2984 RMK A01 T01250079  RH  073%=      5-min Rain = 0
KNH1 211012Z 19008KT 13/08 A2984 RMK A01 T01250078  RH  073%=      5-min Rain = 0
KNH1 211013Z 19008KT 13/08 A2984 RMK A01 T01250079  RH  073%=      5-min Rain = 0
KNH1 211014Z 19009KT 13/08 A2984 RMK A01 T01250078  RH  073%=      5-min Rain = 0
KNH1 211015Z 19009KT 13/08 A2984 RMK A01 T01250078  RH  073%=      5-min Rain = 0
KNH1 211016Z 19009KT 12/08 A2984 RMK A01 T01240078  RH  073%=      5-min Rain = 0
KNH1 211017Z 19009KT 12/08 A2984 RMK A01 T01240078  RH  073%=      5-min Rain = 0
KNH1 211018Z 19009KT 12/08 A2984 RMK A01 T01240078  RH  073%=      5-min Rain = 0
KNH1 211019Z 19009KT 13/08 A2984 RMK A01 T01250078  RH  073%=      5-min Rain = 0
KNH1 211020Z 19009KT 13/08 A2984 RMK A01 T01250078  RH  073%=      5-min Rain = 0
KNH1 211021Z 19010KT 12/08 A2984 RMK A01 T01240078  RH  073%=      5-min Rain = 0
KNH1 211022Z 19009KT 12/08 A2984 RMK A01 T01240078  RH  073%=      5-min Rain = 0
KNH1 211023Z 19009KT 13/08 A2984 RMK A01 T01250078  RH  073%=      5-min Rain = 0
KNH1 211024Z 19009KT 12/08 A2984 RMK A01 T01240077  RH  073%=      5-min Rain = 0
KNH1 211025Z 19009KT 12/08 A2984 RMK A01 T01240077  RH  073%=      5-min Rain = 0
KNH1 211026Z 19009KT 12/08 A2984 RMK A01 T01240077  RH  073%=      5-min Rain = 0
KNH1 211027Z 19009KT 12/08 A2984 RMK A01 T01240077  RH  073%=      5-min Rain = 0
KNH1 211028Z 20009KT 12/08 A2985 RMK A01 T01240077  RH  073%=      5-min Rain = 0
KNH1 211029Z 20010KT 12/08 A2985 RMK A01 T01240077  RH  073%=      5-min Rain = 0
KNH1 211030Z 20009KT 12/08 A2985 RMK A01 T01240077  RH  073%=      5-min Rain = 0
KNH1 211031Z 20009KT 12/08 A2985 RMK A01 T01240077  RH  073%=      5-min Rain = 0
KNH1 211032Z 20009KT 12/08 A2985 RMK A01 T01240077  RH  073%=      5-min Rain = 0
KNH1 211033Z 20009KT 12/08 A2985 RMK A01 T01240077  RH  073%=      5-min Rain = 0
KNH1 211034Z 20010KT 12/08 A2985 RMK A01 T01240077  RH  073%=      5-min Rain = 0
KNH1 211035Z 20009KT 12/08 A2985 RMK A01 T01240077  RH  073%=      5-min Rain = 0
KNH1 211036Z 20009KT 12/08 A2985 RMK A01 T01240077  RH  073%=      5-min Rain = 0
KNH1 211037Z 20009KT 12/08 A2985 RMK A01 T01240077  RH  073%=      5-min Rain = 0
KNH1 211038Z 20010KT 12/08 A2985 RMK A01 T01240077  RH  073%=      5-min Rain = 0
KNH1 211039Z 20009KT 12/08 A2985 RMK A01 T01240077  RH  073%=      5-min Rain = 0
KNH1 211040Z 20009KT 12/08 A2985 RMK A01 T01240077  RH  073%=      5-min Rain = 0
KNH1 211041Z 20009KT 12/08 A2985 RMK A01 T01240077  RH  073%=      5-min Rain = 0
KNH1 211042Z 20009KT 12/08 A2985 RMK A01 T01240078  RH  073%=      5-min Rain = 0
KNH1 211043Z 20009KT 12/08 A2985 RMK A01 T01240078  RH  073%=      5-min Rain = 0
KNH1 211044Z 20010KT 12/08 A2985 RMK A01 T01240078  RH  073%=      5-min Rain = 0
KNH1 211045Z 20010KT 12/08 A2985 RMK A01 T01230077  RH  074%=      5-min Rain = 0
KNH1 211046Z 20010KT 12/08 A2985 RMK A01 T01230077  RH  074%=      5-min Rain = 0
KNH1 211047Z 20010KT 12/08 A2985 RMK A01 T01230077  RH  073%=      5-min Rain = 0
KNH1 211048Z 20009KT 12/08 A2985 RMK A01 T01230078  RH  074%=      5-min Rain = 0
KNH1 211049Z 20010KT 12/08 A2985 RMK A01 T01230077  RH  074%=      5-min Rain = 0
KNH1 211050Z 20010KT 12/08 A2985 RMK A01 T01240078  RH  074%=      5-min Rain = 0
KNH1 211051Z 20010KT 12/08 A2985 RMK A01 T01240078  RH  073%=      5-min Rain = 0
KNH1 211052Z 20010KT 12/08 A2985 RMK A01 T01230077  RH  073%=      5-min Rain = 0
KNH1 211053Z 20010KT 12/08 A2985 RMK A01 T01240077  RH  073%=      5-min Rain = 0
KNH1 211054Z 20010KT 12/08 A2985 RMK A01 T01230077  RH  073%=      5-min Rain = 0
KNH1 211055Z 20010KT 12/08 A2985 RMK A01 T01240077  RH  073%=      5-min Rain = 0
KNH1 211056Z 20009KT 12/08 A2985 RMK A01 T01230077  RH  073%=      5-min Rain = 0
KNH1 211057Z 20009KT 12/08 A2985 RMK A01 T01230078  RH  074%=      5-min Rain = 0
KNH1 211058Z 20010KT 12/08 A2985 RMK A01 T01220078  RH  074%=      5-min Rain = 0
KNH1 211059Z 20010KT 12/08 A2985 RMK A01 T01210078  RH  075%=      5-min Rain = 0
KNH1 211100Z 20010KT 12/08 A2985 RMK A01 T01220078  RH  075%=      5-min Rain = 0
KNH1 211101Z 21009KT 12/08 A2985 RMK A01 T01220078  RH  074%=      5-min Rain = 0
KNH1 211102Z 21009KT 12/08 A2985 RMK A01 T01220077  RH  074%=      5-min Rain = 0
KNH1 211103Z 21009KT 12/08 A2985 RMK A01 T01220077  RH  074%=      5-min Rain = 0
KNH1 211104Z 21009KT 12/08 A2985 RMK A01 T01220077  RH  074%=      5-min Rain = 0
KNH1 211105Z 21009KT 12/08 A2985 RMK A01 T01220077  RH  074%=      5-min Rain = 0
KNH1 211106Z 21009KT 12/08 A2985 RMK A01 T01220077  RH  074%=      5-min Rain = 0
KNH1 211107Z 21009KT 12/08 A2985 RMK A01 T01220078  RH  074%=      5-min Rain = 0
KNH1 211108Z 21009KT 12/08 A2985 RMK A01 T01220078  RH  074%=      5-min Rain = 0
KNH1 211109Z 21009KT 12/08 A2985 RMK A01 T01220078  RH  074%=      5-min Rain = 0
KNH1 211110Z 22009KT 12/08 A2985 RMK A01 T01220077  RH  074%=      5-min Rain = 0
KNH1 211111Z 22008KT 12/08 A2985 RMK A01 T01220077  RH  074%=      5-min Rain = 0
KNH1 211112Z 21009KT 12/08 A2985 RMK A01 T01200077  RH  074%=      5-min Rain = 0
KNH1 211113Z 22008KT 12/08 A2985 RMK A01 T01190076  RH  075%=      5-min Rain = 0
KNH1 211114Z 22008KT 12/08 A2986 RMK A01 T01180076  RH  075%=      5-min Rain = 0
KNH1 211115Z 22008KT 12/08 A2986 RMK A01 T01180076  RH  076%=      5-min Rain = 0
KNH1 211116Z 22008KT 12/08 A2986 RMK A01 T01170076  RH  076%=      5-min Rain = 0
KNH1 211117Z 22008KT 12/08 A2986 RMK A01 T01160076  RH  076%=      5-min Rain = 0
KNH1 211118Z 22008KT 12/08 A2986 RMK A01 T01160075  RH  076%=      5-min Rain = 0
KNH1 211119Z 22008KT 12/08 A2986 RMK A01 T01160076  RH  076%=      5-min Rain = 0
KNH1 211120Z 22008KT 12/08 A2986 RMK A01 T01160075  RH  076%=      5-min Rain = 0
KNH1 211121Z 22008KT 12/08 A2986 RMK A01 T01160075  RH  076%=      5-min Rain = 0
KNH1 211122Z 22008KT 12/08 A2986 RMK A01 T01160076  RH  076%=      5-min Rain = 0
KNH1 211123Z 22008KT 12/08 A2986 RMK A01 T01160076  RH  076%=      5-min Rain = 0
KNH1 211124Z 22008KT 12/08 A2986 RMK A01 T01160075  RH  076%=      5-min Rain = 0
KNH1 211125Z 21009KT 12/08 A2986 RMK A01 T01160076  RH  076%=      5-min Rain = 0
KNH1 211126Z 21008KT 12/08 A2986 RMK A01 T01160076  RH  076%=      5-min Rain = 0
KNH1 211127Z 21008KT 12/08 A2986 RMK A01 T01160076  RH  076%=      5-min Rain = 0
KNH1 211128Z 21008KT 12/08 A2986 RMK A01 T01160076  RH  076%=      5-min Rain = 0
KNH1 211129Z 21008KT 12/08 A2986 RMK A01 T01160076  RH  076%=      5-min Rain = 0
KNH1 211130Z 22008KT 12/08 A2986 RMK A01 T01160076  RH  076%=      5-min Rain = 0
KNH1 211131Z 21008KT 12/08 A2986 RMK A01 T01150076  RH  077%=      5-min Rain = 0
KNH1 211132Z 21007KT 12/08 A2986 RMK A01 T01150076  RH  077%=      5-min Rain = 0
KNH1 211133Z 21008KT 12/08 A2986 RMK A01 T01150076  RH  077%=      5-min Rain = 0
KNH1 211134Z 21008KT 12/08 A2986 RMK A01 T01150075  RH  076%=      5-min Rain = 0
KNH1 211135Z 22008KT 12/08 A2986 RMK A01 T01160076  RH  076%=      5-min Rain = 0
KNH1 211136Z 22008KT 12/08 A2986 RMK A01 T01170075  RH  076%=      5-min Rain = 0
KNH1 211137Z 21008KT 12/08 A2986 RMK A01 T01170076  RH  076%=      5-min Rain = 0
KNH1 211138Z 22008KT 12/08 A2986 RMK A01 T01180076  RH  076%=      5-min Rain = 0
KNH1 211139Z 22008KT 12/08 A2986 RMK A01 T01180076  RH  075%=      5-min Rain = 0
KNH1 211140Z 22008KT 12/08 A2986 RMK A01 T01180076  RH  075%=      5-min Rain = 0
KNH1 211141Z 22008KT 12/08 A2986 RMK A01 T01170075  RH  076%=      5-min Rain = 0
KNH1 211142Z 22008KT 12/08 A2986 RMK A01 T01160075  RH  076%=      5-min Rain = 0
KNH1 211143Z 22008KT 12/08 A2986 RMK A01 T01160075  RH  076%=      5-min Rain = 0
KNH1 211144Z 22008KT 12/08 A2986 RMK A01 T01150075  RH  076%=      5-min Rain = 0
KNH1 211145Z 22008KT 12/08 A2986 RMK A01 T01150075  RH  077%=      5-min Rain = 0
KNH1 211146Z 22008KT 11/08 A2986 RMK A01 T01140075  RH  077%=      5-min Rain = 0
KNH1 211147Z 22008KT 11/08 A2986 RMK A01 T01140075  RH  077%=      5-min Rain = 0
KNH1 211148Z 22007KT 11/08 A2986 RMK A01 T01140075  RH  077%=      5-min Rain = 0
KNH1 211149Z 22007KT 11/07 A2986 RMK A01 T01130074  RH  077%=      5-min Rain = 0
KNH1 211150Z 22007KT 11/08 A2986 RMK A01 T01130075  RH  077%=      5-min Rain = 0
KNH1 211151Z 21007KT 11/07 A2986 RMK A01 T01120074  RH  077%=      5-min Rain = 0
KNH1 211152Z 22007KT 11/07 A2986 RMK A01 T01120074  RH  078%=      5-min Rain = 0
KNH1 211153Z 21008KT 11/07 A2986 RMK A01 T01120074  RH  078%=      5-min Rain = 0
KNH1 211154Z 21008KT 11/07 A2986 RMK A01 T01110074  RH  078%=      5-min Rain = 0
KNH1 211155Z 21008KT 11/07 A2986 RMK A01 T01110074  RH  078%=      5-min Rain = 0
KNH1 211156Z 21008KT 11/08 A2986 RMK A01 T01110075  RH  078%=      5-min Rain = 0
KNH1 211157Z 21008KT 11/08 A2987 RMK A01 T01110075  RH  078%=      5-min Rain = 0
KNH1 211158Z 21008KT 11/08 A2987 RMK A01 T01110075  RH  078%=      5-min Rain = 0
KNH1 211159Z 21008KT 11/07 A2987 RMK A01 T01110074  RH  078%=      5-min Rain = 0
KNH1 211200Z 21008KT 11/07 A2987 RMK A01 T01110074  RH  078%=      5-min Rain = 0
KNH1 211201Z 21008KT 11/07 A2987 RMK A01 T01120074  RH  078%=      5-min Rain = 0
KNH1 211202Z 21008KT 11/08 A2987 RMK A01 T01120075  RH  078%=      5-min Rain = 0
KNH1 211203Z 21009KT 11/08 A2987 RMK A01 T01130075  RH  077%=      5-min Rain = 0
KNH1 211204Z 21009KT 11/08 A2987 RMK A01 T01140075  RH  077%=      5-min Rain = 0
KNH1 211205Z 21009KT 12/08 A2987 RMK A01 T01150075  RH  076%=      5-min Rain = 0
KNH1 211206Z 21009KT 12/08 A2987 RMK A01 T01160075  RH  075%=      5-min Rain = 0
KNH1 211207Z 21009KT 12/07 A2987 RMK A01 T01170074  RH  075%=      5-min Rain = 0
KNH1 211208Z 21009KT 12/07 A2987 RMK A01 T01170074  RH  075%=      5-min Rain = 0
KNH1 211209Z 22008KT 12/07 A2987 RMK A01 T01160074  RH  075%=      5-min Rain = 0
KNH1 211210Z 22008KT 12/07 A2987 RMK A01 T01160074  RH  076%=      5-min Rain = 0
KNH1 211211Z 22008KT 12/07 A2987 RMK A01 T01150074  RH  076%=      5-min Rain = 0
KNH1 211212Z 22008KT 11/07 A2987 RMK A01 T01140074  RH  076%=      5-min Rain = 0
KNH1 211213Z 21008KT 11/07 A2987 RMK A01 T01140074  RH  076%=      5-min Rain = 0
KNH1 211214Z 22008KT 11/07 A2987 RMK A01 T01140074  RH  077%=      5-min Rain = 0
KNH1 211215Z 22008KT 11/07 A2987 RMK A01 T01140074  RH  077%=      5-min Rain = 0
KNH1 211216Z 22008KT 11/07 A2987 RMK A01 T01140074  RH  077%=      5-min Rain = 0
KNH1 211217Z 22008KT 11/07 A2987 RMK A01 T01130074  RH  077%=      5-min Rain = 0
KNH1 211218Z 22008KT 11/07 A2987 RMK A01 T01130074  RH  077%=      5-min Rain = 0
KNH1 211219Z 22008KT 11/07 A2987 RMK A01 T01130074  RH  077%=      5-min Rain = 0
KNH1 211220Z 22008KT 11/07 A2987 RMK A01 T01130074  RH  077%=      5-min Rain = 0
KNH1 211221Z 21008KT 11/07 A2987 RMK A01 T01130074  RH  077%=      5-min Rain = 0
KNH1 211222Z 21008KT 11/07 A2987 RMK A01 T01140074  RH  077%=      5-min Rain = 0
KNH1 211223Z 21009KT 11/07 A2987 RMK A01 T01140074  RH  076%=      5-min Rain = 0
KNH1 211224Z 21009KT 12/07 A2987 RMK A01 T01150074  RH  076%=      5-min Rain = 0
KNH1 211225Z 21009KT 12/07 A2987 RMK A01 T01150074  RH  076%=      5-min Rain = 0
KNH1 211226Z 21008KT 12/08 A2987 RMK A01 T01160075  RH  076%=      5-min Rain = 0
KNH1 211227Z 22008KT 12/08 A2987 RMK A01 T01160075  RH  076%=      5-min Rain = 0
KNH1 211228Z 22009KT 12/07 A2987 RMK A01 T01160074  RH  076%=      5-min Rain = 0
KNH1 211229Z 22008KT 12/08 A2988 RMK A01 T01160075  RH  076%=      5-min Rain = 0
KNH1 211230Z 22008KT 12/08 A2988 RMK A01 T01150075  RH  076%=      5-min Rain = 0
KNH1 211231Z 22008KT 12/08 A2988 RMK A01 T01150075  RH  076%=      5-min Rain = 0
KNH1 211232Z 22008KT 12/08 A2988 RMK A01 T01150075  RH  076%=      5-min Rain = 0
KNH1 211233Z 21009KT 12/08 A2988 RMK A01 T01150075  RH  076%=      5-min Rain = 0
KNH1 211234Z 22009KT 12/08 A2988 RMK A01 T01160076  RH  076%=      5-min Rain = 0
KNH1 211235Z 21009KT 12/08 A2988 RMK A01 T01170076  RH  076%=      5-min Rain = 0
KNH1 211236Z 22009KT 12/08 A2988 RMK A01 T01180076  RH  075%=      5-min Rain = 0
KNH1 211237Z 22009KT 12/08 A2988 RMK A01 T01180076  RH  075%=      5-min Rain = 0
KNH1 211238Z 21009KT 12/08 A2988 RMK A01 T01190077  RH  075%=      5-min Rain = 0
KNH1 211239Z 21009KT 12/08 A2988 RMK A01 T01200077  RH  075%=      5-min Rain = 0
KNH1 211240Z 21010KT 12/08 A2988 RMK A01 T01210077  RH  074%=      5-min Rain = 0
KNH1 211241Z 21009KT 12/08 A2988 RMK A01 T01220077  RH  074%=      5-min Rain = 0
KNH1 211242Z 21010KT 12/08 A2988 RMK A01 T01230077  RH  073%=      5-min Rain = 0
KNH1 211243Z 21009KT 12/08 A2988 RMK A01 T01240077  RH  073%=      5-min Rain = 0
KNH1 211244Z 22010KT 12/08 A2988 RMK A01 T01240077  RH  073%=      5-min Rain = 0
KNH1 211245Z 22009KT 12/08 A2988 RMK A01 T01240077  RH  073%=      5-min Rain = 0
KNH1 211246Z 22009KT 12/08 A2988 RMK A01 T01240077  RH  073%=      5-min Rain = 0
KNH1 211247Z 21010KT 13/08 A2988 RMK A01 T01250078  RH  073%=      5-min Rain = 0
KNH1 211248Z 21009KT 13/08 A2988 RMK A01 T01260078  RH  073%=      5-min Rain = 0
KNH1 211249Z 21010KT 13/08 A2988 RMK A01 T01260078  RH  072%=      5-min Rain = 0
KNH1 211250Z 21010KT 13/08 A2988 RMK A01 T01260078  RH  072%=      5-min Rain = 0
KNH1 211251Z 22010KT 13/08 A2989 RMK A01 T01270078  RH  072%=      5-min Rain = 0
KNH1 211252Z 21010KT 13/08 A2989 RMK A01 T01280079  RH  072%=      5-min Rain = 0
KNH1 211253Z 21010KT 13/08 A2989 RMK A01 T01290079  RH  072%=      5-min Rain = 0
KNH1 211254Z 21010KT 13/08 A2989 RMK A01 T01290079  RH  072%=      5-min Rain = 0
KNH1 211255Z 22009KT 13/08 A2989 RMK A01 T01300079  RH  072%=      5-min Rain = 0
KNH1 211256Z 22009KT 13/08 A2989 RMK A01 T01300079  RH  071%=      5-min Rain = 0
KNH1 211257Z 22009KT 13/08 A2989 RMK A01 T01300080  RH  071%=      5-min Rain = 0
KNH1 211258Z 21009KT 13/08 A2989 RMK A01 T01300079  RH  071%=      5-min Rain = 0
KNH1 211259Z 21009KT 13/08 A2989 RMK A01 T01300079  RH  071%=      5-min Rain = 0
KNH1 211300Z 21010KT 13/08 A2989 RMK A01 T01310080  RH  071%=      5-min Rain = 0
KNH1 211301Z 21010KT 13/08 A2989 RMK A01 T01310080  RH  071%=      5-min Rain = 0
KNH1 211302Z 21008KT 13/08 A2989 RMK A01 T01310080  RH  071%=      5-min Rain = 0
KNH1 211303Z 21009KT 13/08 A2989 RMK A01 T01320080  RH  071%=      5-min Rain = 0
KNH1 211304Z 21010KT 13/08 A2989 RMK A01 T01320081  RH  071%=      5-min Rain = 0
KNH1 211305Z 21009KT 13/08 A2989 RMK A01 T01330081  RH  071%=      5-min Rain = 0
KNH1 211306Z 22009KT 13/08 A2989 RMK A01 T01330081  RH  070%=      5-min Rain = 0
KNH1 211307Z 22010KT 13/08 A2989 RMK A01 T01340081  RH  070%=      5-min Rain = 0
KNH1 211308Z 22009KT 14/08 A2989 RMK A01 T01350081  RH  070%=      5-min Rain = 0
KNH1 211309Z 22009KT 14/08 A2989 RMK A01 T01350082  RH  070%=      5-min Rain = 0
KNH1 211310Z 22009KT 14/08 A2989 RMK A01 T01350082  RH  070%=      5-min Rain = 0
KNH1 211311Z 22009KT 14/08 A2989 RMK A01 T01360082  RH  070%=      5-min Rain = 0
KNH1 211312Z 22009KT 14/08 A2989 RMK A01 T01370082  RH  070%=      5-min Rain = 0
KNH1 211313Z 22008KT 14/08 A2989 RMK A01 T01370083  RH  069%=      5-min Rain = 0
KNH1 211314Z 22008KT 14/08 A2989 RMK A01 T01380083  RH  069%=      5-min Rain = 0
KNH1 211315Z 22009KT 14/08 A2989 RMK A01 T01390084  RH  069%=      5-min Rain = 0
KNH1 211316Z 22009KT 14/08 A2989 RMK A01 T01400084  RH  069%=      5-min Rain = 0
KNH1 211317Z 22009KT 14/08 A299 RMK A01 T01410084  RH  069%=      5-min Rain = 0
KNH1 211318Z 21008KT 14/08 A299 RMK A01 T01410084  RH  068%=      5-min Rain = 0
KNH1 211319Z 21010KT 14/09 A299 RMK A01 T01420085  RH  068%=      5-min Rain = 0
KNH1 211320Z 22010KT 14/09 A299 RMK A01 T01430085  RH  068%=      5-min Rain = 0
KNH1 211321Z 22009KT 14/09 A299 RMK A01 T01430085  RH  068%=      5-min Rain = 0
KNH1 211322Z 22009KT 14/09 A299 RMK A01 T01440085  RH  068%=      5-min Rain = 0
KNH1 211323Z 22009KT 15/09 A299 RMK A01 T01450086  RH  067%=      5-min Rain = 0
KNH1 211324Z 22010KT 15/09 A299 RMK A01 T01460087  RH  067%=      5-min Rain = 0
KNH1 211325Z 22009KT 15/09 A299 RMK A01 T01470087  RH  067%=      5-min Rain = 0
KNH1 211326Z 22010KT 15/09 A299 RMK A01 T01480087  RH  067%=      5-min Rain = 0
KNH1 211327Z 22011KT 15/09 A299 RMK A01 T01480086  RH  066%=      5-min Rain = 0
KNH1 211328Z 22010KT 15/09 A299 RMK A01 T01490087  RH  066%=      5-min Rain = 0
KNH1 211329Z 22009KT 15/09 A299 RMK A01 T01500087  RH  066%=      5-min Rain = 0
KNH1 211330Z 22011KT 15/09 A299 RMK A01 T01510088  RH  066%=      5-min Rain = 0
KNH1 211331Z 22009KT 15/09 A299 RMK A01 T01520087  RH  065%=      5-min Rain = 0
KNH1 211332Z 22010KT 15/09 A299 RMK A01 T01520088  RH  065%=      5-min Rain = 0
KNH1 211333Z 22009KT 15/09 A299 RMK A01 T01530088  RH  065%=      5-min Rain = 0
KNH1 211334Z 22011KT 15/09 A299 RMK A01 T01540088  RH  065%=      5-min Rain = 0
KNH1 211335Z 22011KT 16/09 A299 RMK A01 T01550088  RH  064%=      5-min Rain = 0
KNH1 211336Z 22009KT 16/09 A299 RMK A01 T01550089  RH  064%=      5-min Rain = 0
KNH1 211337Z 22010KT 16/09 A299 RMK A01 T01560089  RH  064%=      5-min Rain = 0
KNH1 211338Z 22011KT 16/09 A299 RMK A01 T01570088  RH  064%=      5-min Rain = 0
KNH1 211339Z 22012KT 16/09 A299 RMK A01 T01570088  RH  063%=      5-min Rain = 0
KNH1 211340Z 22010KT 16/09 A299 RMK A01 T01580088  RH  063%=      5-min Rain = 0
KNH1 211341Z 22011KT 16/09 A299 RMK A01 T01590089  RH  063%=      5-min Rain = 0
KNH1 211342Z 22011KT 16/09 A299 RMK A01 T01590089  RH  063%=      5-min Rain = 0
KNH1 211343Z 22010KT 16/09 A299 RMK A01 T01600089  RH  063%=      5-min Rain = 0
KNH1 211344Z 22009KT 16/09 A299 RMK A01 T01610091  RH  063%=      5-min Rain = 0
KNH1 211345Z 23010KT 16/09 A299 RMK A01 T01620091  RH  063%=      5-min Rain = 0
KNH1 211346Z 22011KT 16/09 A299 RMK A01 T01620089  RH  062%=      5-min Rain = 0
KNH1 211347Z 23012KT 16/09 A299 RMK A01 T01630090  RH  062%=      5-min Rain = 0
KNH1 211348Z 23011KT 16/09 A299 RMK A01 T01630089  RH  061%=      5-min Rain = 0
KNH1 211349Z 22012KT 16/09 A299 RMK A01 T01640089  RH  061%=      5-min Rain = 0
KNH1 211350Z 23012KT 16/09 A299 RMK A01 T01640089  RH  061%=      5-min Rain = 0
KNH1 211351Z 23010KT 17/09 A299 RMK A01 T01650090  RH  061%=      5-min Rain = 0
KNH1 211352Z 23011KT 17/09 A299 RMK A01 T01670091  RH  061%=      5-min Rain = 0
KNH1 211353Z 23013KT 17/09 A299 RMK A01 T01680090  RH  060%=      5-min Rain = 0
KNH1 211354Z 22011KT 17/09 A299 RMK A01 T01680089  RH  060%=      5-min Rain = 0
KNH1 211355Z 23013KT 17/09 A299 RMK A01 T01690090  RH  060%=      5-min Rain = 0
KNH1 211356Z 23014KT 17/09 A299 RMK A01 T01690088  RH  058%=      5-min Rain = 0
KNH1 211357Z 23011KT 17/09 A299 RMK A01 T01700089  RH  059%=      5-min Rain = 0
KNH1 211358Z 23011KT 17/09 A299 RMK A01 T01700089  RH  059%=      5-min Rain = 0
KNH1 211359Z 23012KT 17/09 A2991 RMK A01 T01710090  RH  059%=      5-min Rain = 0
KNH1 211400Z 23009KT 17/09 A2991 RMK A01 T01720092  RH  059%=      5-min Rain = 0
KNH1 211401Z 23014KT 17/09 A299 RMK A01 T01730089  RH  058%=      5-min Rain = 0
KNH1 211402Z 23013KT 17/09 A299 RMK A01 T01730088  RH  057%=      5-min Rain = 0
KNH1 211403Z 24013KT 17/09 A299 RMK A01 T01720087  RH  057%=      5-min Rain = 0
KNH1 211404Z 23010KT 17/09 A299 RMK A01 T01730088  RH  057%=      5-min Rain = 0
KNH1 211405Z 23012KT 17/09 A299 RMK A01 T01740089  RH  057%=      5-min Rain = 0
KNH1 211406Z 24013KT 17/09 A299 RMK A01 T01740087  RH  057%=      5-min Rain = 0
KNH1 211407Z 23012KT 17/09 A299 RMK A01 T01740087  RH  057%=      5-min Rain = 0
KNH1 211408Z 24014KT 17/09 A299 RMK A01 T01740087  RH  056%=      5-min Rain = 0
KNH1 211409Z 23011KT 17/09 A299 RMK A01 T01740086  RH  056%=      5-min Rain = 0
KNH1 211410Z 23014KT 18/09 A299 RMK A01 T01750087  RH  056%=      5-min Rain = 0
KNH1 211411Z 24012KT 18/09 A299 RMK A01 T01750087  RH  056%=      5-min Rain = 0
KNH1 211412Z 24013KT 18/09 A299 RMK A01 T01750088  RH  057%=      5-min Rain = 0
KNH1 211413Z 24013KT 18/09 A299 RMK A01 T01750086  RH  056%=      5-min Rain = 0
KNH1 211414Z 24012KT 17/09 A299 RMK A01 T01740087  RH  056%=      5-min Rain = 0
KNH1 211415Z 24012KT 18/09 A299 RMK A01 T01750086  RH  056%=      5-min Rain = 0
KNH1 211416Z 24012KT 18/09 A299 RMK A01 T01750086  RH  056%=      5-min Rain = 0
KNH1 211417Z 23012KT 18/09 A299 RMK A01 T01750086  RH  056%=      5-min Rain = 0
KNH1 211418Z 23010KT 18/09 A299 RMK A01 T01750087  RH  056%=      5-min Rain = 0
KNH1 211419Z 23011KT 18/09 A299 RMK A01 T01770088  RH  056%=      5-min Rain = 0
KNH1 211420Z 23013KT 18/09 A299 RMK A01 T01780087  RH  055%=      5-min Rain = 0
KNH1 211421Z 23013KT 18/09 A299 RMK A01 T01780085  RH  054%=      5-min Rain = 0
KNH1 211422Z 23014KT 18/09 A299 RMK A01 T01770085  RH  055%=      5-min Rain = 0
KNH1 211423Z 23013KT 18/08 A299 RMK A01 T01770084  RH  054%=      5-min Rain = 0
KNH1 211424Z 24013KT 18/08 A299 RMK A01 T01780084  RH  054%=      5-min Rain = 0
KNH1 211425Z 24013KT 18/09 A299 RMK A01 T01790085  RH  054%=      5-min Rain = 0
KNH1 211426Z 24014KT 18/09 A299 RMK A01 T01790085  RH  054%=      5-min Rain = 0
KNH1 211427Z 24014KT 18/08 A299 RMK A01 T01790084  RH  054%=      5-min Rain = 0
KNH1 211428Z 23013KT 18/09 A299 RMK A01 T01790085  RH  054%=      5-min Rain = 0
KNH1 211429Z 24013KT 18/08 A299 RMK A01 T01790084  RH  054%=      5-min Rain = 0
KNH1 211430Z 24014KT 18/08 A299 RMK A01 T01800084  RH  054%=      5-min Rain = 0
KNH1 211431Z 24014KT 18/09 A299 RMK A01 T01810085  RH  053%=      5-min Rain = 0
KNH1 211432Z 23015KT 18/08 A299 RMK A01 T01820083  RH  052%=      5-min Rain = 0
KNH1 211433Z 24015KT 18/08 A299 RMK A01 T01820082  RH  052%=      5-min Rain = 0
KNH1 211434Z 24014KT 18/08 A299 RMK A01 T01820082  RH  052%=      5-min Rain = 0
KNH1 211435Z 24013KT 18/08 A299 RMK A01 T01820084  RH  053%=      5-min Rain = 0
KNH1 211436Z 24012KT 18/08 A299 RMK A01 T01820084  RH  053%=      5-min Rain = 0
KNH1 211437Z 24014KT 19/09 A299 RMK A01 T01850085  RH  052%=      5-min Rain = 0
KNH1 211438Z 24013KT 19/08 A299 RMK A01 T01850083  RH  051%=      5-min Rain = 0
KNH1 211439Z 23014KT 19/08 A299 RMK A01 T01850083  RH  051%=      5-min Rain = 0
KNH1 211440Z 23014KT 19/08 A299 RMK A01 T01850083  RH  051%=      5-min Rain = 0
KNH1 211441Z 24012KT 19/08 A299 RMK A01 T01850084  RH  052%=      5-min Rain = 0
KNH1 211442Z 24013KT 19/09 A299 RMK A01 T01860085  RH  051%=      5-min Rain = 0
KNH1 211443Z 24013KT 19/08 A299 RMK A01 T01870083  RH  051%=      5-min Rain = 0
KNH1 211444Z 24011KT 19/08 A299 RMK A01 T01870084  RH  051%=      5-min Rain = 0
KNH1 211445Z 24012KT 19/09 A299 RMK A01 T01890086  RH  051%=      5-min Rain = 0
KNH1 211446Z 24014KT 19/08 A299 RMK A01 T01900084  RH  050%=      5-min Rain = 0
KNH1 211447Z 25015KT 19/08 A299 RMK A01 T01910083  RH  049%=      5-min Rain = 0
KNH1 211448Z 25013KT 19/08 A299 RMK A01 T01920083  RH  049%=      5-min Rain = 0
KNH1 211449Z 24014KT 19/09 A299 RMK A01 T01940086  RH  050%=      5-min Rain = 0
KNH1 211450Z 24014KT 20/09 A299 RMK A01 T01950086  RH  049%=      5-min Rain = 0
KNH1 211451Z 24014KT 20/08 A299 RMK A01 T01960083  RH  048%=      5-min Rain = 0
KNH1 211452Z 24013KT 20/08 A299 RMK A01 T01990082  RH  047%=      5-min Rain = 0
KNH1 211453Z 24015KT 20/08 A299 RMK A01 T02000081  RH  046%=      5-min Rain = 0
KNH1 211454Z 24013KT 20/08 A299 RMK A01 T02000083  RH  047%=      5-min Rain = 0
KNH1 211455Z 24013KT 20/09 A299 RMK A01 T02010085  RH  047%=      5-min Rain = 0
KNH1 211456Z 24013KT 20/09 A299 RMK A01 T02030086  RH  047%=      5-min Rain = 0
KNH1 211457Z 24014KT 20/09 A299 RMK A01 T02040085  RH  046%=      5-min Rain = 0
KNH1 211458Z 25014KT 20/08 A299 RMK A01 T02040084  RH  046%=      5-min Rain = 0
KNH1 211459Z 25013KT 20/09 A299 RMK A01 T02040085  RH  046%=      5-min Rain = 0
KNH1 211500Z 25014KT 20/08 A299 RMK A01 T02040082  RH  045%=      5-min Rain = 0
KNH1 211501Z 25014KT 20/08 A299 RMK A01 T02040082  RH  046%=      5-min Rain = 0
KNH1 211502Z 24014KT 20/08 A299 RMK A01 T02040083  RH  045%=      5-min Rain = 0
KNH1 211503Z 25013KT 21/08 A299 RMK A01 T02060084  RH  045%=      5-min Rain = 0
KNH1 211504Z 25016KT 21/08 A299 RMK A01 T02060078  RH  043%=      5-min Rain = 0
KNH1 211505Z 25013KT 21/08 A299 RMK A01 T02070081  RH  044%=      5-min Rain = 0
KNH1 211506Z 25015KT 21/08 A299 RMK A01 T02080080  RH  044%=      5-min Rain = 0
KNH1 211507Z 25014KT 21/08 A299 RMK A01 T02090078  RH  043%=      5-min Rain = 0
KNH1 211508Z 26013KT 21/08 A299 RMK A01 T02090080  RH  043%=      5-min Rain = 0
KNH1 211509Z 26013KT 21/08 A299 RMK A01 T02100081  RH  044%=      5-min Rain = 0
KNH1 211510Z 26014KT 21/08 A299 RMK A01 T02110080  RH  043%=      5-min Rain = 0
KNH1 211511Z 25014KT 21/08 A299 RMK A01 T02120077  RH  042%=      5-min Rain = 0
KNH1 211512Z 25015KT 21/07 A299 RMK A01 T02120074  RH  041%=      5-min Rain = 0
KNH1 211513Z 25014KT 21/07 A299 RMK A01 T02130074  RH  041%=      5-min Rain = 0
KNH1 211514Z 25012KT 21/08 A299 RMK A01 T02130075  RH  041%=      5-min Rain = 0
KNH1 211515Z 25013KT 21/08 A299 RMK A01 T02140077  RH  041%=      5-min Rain = 0
KNH1 211516Z 26011KT 22/08 A299 RMK A01 T02150081  RH  042%=      5-min Rain = 0
KNH1 211517Z 26014KT 22/08 A299 RMK A01 T02160077  RH  041%=      5-min Rain = 0
KNH1 211518Z 26012KT 22/08 A299 RMK A01 T02160077  RH  041%=      5-min Rain = 0
KNH1 211519Z 25013KT 22/07 A299 RMK A01 T02170074  RH  040%=      5-min Rain = 0
KNH1 211520Z 25013KT 22/07 A299 RMK A01 T02180073  RH  039%=      5-min Rain = 0
KNH1 211521Z 25013KT 22/07 A299 RMK A01 T02190074  RH  039%=      5-min Rain = 0
KNH1 211522Z 25013KT 22/08 A299 RMK A01 T02190076  RH  040%=      5-min Rain = 0
KNH1 211523Z 25013KT 22/07 A299 RMK A01 T02190073  RH  039%=      5-min Rain = 0
KNH1 211524Z 25013KT 22/07 A299 RMK A01 T02200071  RH  038%=      5-min Rain = 0
KNH1 211525Z 25013KT 22/07 A299 RMK A01 T02210073  RH  039%=      5-min Rain = 0
KNH1 211526Z 26013KT 22/07 A299 RMK A01 T02210071  RH  038%=      5-min Rain = 0
KNH1 211527Z 25012KT 22/07 A299 RMK A01 T02220073  RH  038%=      5-min Rain = 0
KNH1 211528Z 25012KT 22/07 A299 RMK A01 T02230072  RH  038%=      5-min Rain = 0
KNH1 211529Z 25012KT 23/07 A299 RMK A01 T02260074  RH  038%=      5-min Rain = 0
KNH1 211530Z 25013KT 23/08 A299 RMK A01 T02290076  RH  037%=      5-min Rain = 0
KNH1 211531Z 26011KT 23/08 A299 RMK A01 T02310078  RH  037%=      5-min Rain = 0
KNH1 211532Z 26013KT 23/07 A299 RMK A01 T02320074  RH  036%=      5-min Rain = 0
KNH1 211533Z 26012KT 23/07 A299 RMK A01 T02330071  RH  035%=      5-min Rain = 0
KNH1 211534Z 26012KT 23/07 A299 RMK A01 T02330069  RH  035%=      5-min Rain = 0
KNH1 211535Z 27013KT 23/07 A299 RMK A01 T02330072  RH  035%=      5-min Rain = 0
KNH1 211536Z 26012KT 23/07 A299 RMK A01 T02330072  RH  035%=      5-min Rain = 0
KNH1 211537Z 26012KT 24/07 A299 RMK A01 T02350074  RH  036%=      5-min Rain = 0
KNH1 211538Z 26014KT 24/07 A299 RMK A01 T02370073  RH  035%=      5-min Rain = 0
KNH1 211539Z 26014KT 24/07 A299 RMK A01 T02370067  RH  033%=      5-min Rain = 0
KNH1 211540Z 26013KT 24/07 A299 RMK A01 T02380072  RH  035%=      5-min Rain = 0
KNH1 211541Z 27013KT 24/07 A299 RMK A01 T02380069  RH  034%=      5-min Rain = 0
KNH1 211542Z 27014KT 24/06 A299 RMK A01 T02390061  RH  032%=      5-min Rain = 0
KNH1 211543Z 27013KT 24/05 A299 RMK A01 T02400053  RH  030%=      5-min Rain = 0
KNH1 211544Z 28014KT 24/05 A299 RMK A01 T02410054  RH  030%=      5-min Rain = 0
KNH1 211545Z 27012KT 24/06 A299 RMK A01 T02410058  RH  031%=      5-min Rain = 0
KNH1 211546Z 28010KT 24/06 A299 RMK A01 T02420056  RH  030%=      5-min Rain = 0
KNH1 211547Z 28013KT 24/06 A2991 RMK A01 T02430055  RH  030%=      5-min Rain = 0
KNH1 211548Z 27013KT 24/06 A299 RMK A01 T02430058  RH  030%=      5-min Rain = 0
KNH1 211549Z 29016KT 25/06 A2991 RMK A01 T02450055  RH  029%=      5-min Rain = 0
KNH1 211550Z 29015KT 25/05 A2991 RMK A01 T02460051  RH  028%=      5-min Rain = 0
KNH1 211551Z 28012KT 25/06 A2991 RMK A01 T02450058  RH  030%=      5-min Rain = 0
KNH1 211552Z 29014KT 25/06 A2991 RMK A01 T02460055  RH  029%=      5-min Rain = 0
KNH1 211553Z 28012KT 25/05 A2991 RMK A01 T02460045  RH  027%=      5-min Rain = 0
KNH1 211554Z 28013KT 25/05 A2991 RMK A01 T02460053  RH  029%=      5-min Rain = 0
KNH1 211555Z 29014KT 25/05 A2991 RMK A01 T02480051  RH  028%=      5-min Rain = 0
KNH1 211556Z 28013KT 25/05 A2991 RMK A01 T02480046  RH  027%=      5-min Rain = 0
KNH1 211557Z 29016KT 25/05 A299 RMK A01 T02480046  RH  027%=      5-min Rain = 0
KNH1 211558Z 29015KT 25/05 A2991 RMK A01 T02480048  RH  028%=      5-min Rain = 0
KNH1 211559Z 28016G21KT 25/05 A2991 RMK A01 T02480051  RH  028%=      5-min Rain = 0
KNH1 211600Z 28015KT 25/05 A2991 RMK A01 T02480049  RH  028%=      5-min Rain = 0
KNH1 211601Z 28013KT 25/05 A2991 RMK A01 T02480051  RH  028%=      5-min Rain = 0
KNH1 211602Z 28015KT 25/05 A2991 RMK A01 T02480051  RH  028%=      5-min Rain = 0
KNH1 211603Z 28013KT 25/05 A2991 RMK A01 T02490050  RH  028%=      5-min Rain = 0
KNH1 211604Z 28015KT 25/05 A2991 RMK A01 T02500050  RH  028%=      5-min Rain = 0
KNH1 211605Z 28016KT 25/04 A2991 RMK A01 T02510043  RH  026%=      5-min Rain = 0
KNH1 211606Z 28015G22KT 25/05 A2991 RMK A01 T02510049  RH  027%=      5-min Rain = 0
KNH1 211607Z 29016KT 25/04 A2991 RMK A01 T02520043  RH  026%=      5-min Rain = 0
KNH1 211608Z 28015KT 25/05 A2991 RMK A01 T02520045  RH  026%=      5-min Rain = 0
KNH1 211609Z 29010KT 25/05 A2991 RMK A01 T02520047  RH  027%=      5-min Rain = 0
KNH1 211610Z 28011KT 25/05 A2991 RMK A01 T02530049  RH  027%=      5-min Rain = 0
KNH1 211611Z 28013KT 26/05 A2991 RMK A01 T02560046  RH  026%=      5-min Rain = 0
KNH1 211612Z 28014KT 26/04 A2991 RMK A01 T02580043  RH  025%=      5-min Rain = 0
KNH1 211613Z 27013KT 26/04 A2991 RMK A01 T02590039  RH  024%=      5-min Rain = 0
KNH1 211614Z 28014KT 26/04 A2991 RMK A01 T02590041  RH  025%=      5-min Rain = 0
KNH1 211615Z 28016KT 26/04 A2991 RMK A01 T02590038  RH  024%=      5-min Rain = 0
KNH1 211616Z 29014KT 26/04 A2991 RMK A01 T02590044  RH  025%=      5-min Rain = 0
KNH1 211617Z 28013KT 26/04 A2991 RMK A01 T02590040  RH  024%=      5-min Rain = 0
KNH1 211618Z 30014KT 26/04 A2991 RMK A01 T02600041  RH  024%=      5-min Rain = 0
KNH1 211619Z 29013KT 26/05 A2991 RMK A01 T02620046  RH  025%=      5-min Rain = 0
KNH1 211620Z 28015KT 26/04 A2991 RMK A01 T02640035  RH  023%=      5-min Rain = 0
KNH1 211621Z 30011KT 27/04 A2991 RMK A01 T02660038  RH  023%=      5-min Rain = 0
KNH1 211622Z 29014KT 27/03 A2991 RMK A01 T02670026  RH  021%=      5-min Rain = 0
KNH1 211623Z 29012G18KT 27/03 A2991 RMK A01 T02670027  RH  021%=      5-min Rain = 0
KNH1 211624Z 29012G17KT 27/03 A2991 RMK A01 T02670029  RH  021%=      5-min Rain = 0
KNH1 211625Z 30013KT 27/03 A2991 RMK A01 T02680029  RH  021%=      5-min Rain = 0
KNH1 211626Z 30014KT 27/02 A2991 RMK A01 T02680023  RH  020%=      5-min Rain = 0
KNH1 211627Z 30014KT 27/02 A2991 RMK A01 T02680019  RH  020%=      5-min Rain = 0
KNH1 211628Z 29012KT 27/02 A2991 RMK A01 T02670021  RH  020%=      5-min Rain = 0
KNH1 211629Z 28013KT 27/02 A2991 RMK A01 T02680024  RH  021%=      5-min Rain = 0
KNH1 211630Z 29017KT 27/02 A2991 RMK A01 T02690018  RH  020%=      5-min Rain = 0
KNH1 211631Z 30015KT 27/02 A2991 RMK A01 T02690016  RH  019%=      5-min Rain = 0
KNH1 211632Z 29013G18KT 27/02 A2991 RMK A01 T02700021  RH  020%=      5-min Rain = 0
KNH1 211633Z 29014G19KT 27/02 A2991 RMK A01 T02700018  RH  020%=      5-min Rain = 0
KNH1 211634Z 29014KT 27/02 A2991 RMK A01 T02700019  RH  020%=      5-min Rain = 0
KNH1 211635Z 30014KT 27/01 A2991 RMK A01 T02700014  RH  019%=      5-min Rain = 0
KNH1 211636Z 30011KT 27/02 A2991 RMK A01 T02700017  RH  019%=      5-min Rain = 0
KNH1 211637Z 30013KT 27/02 A2991 RMK A01 T02700016  RH  019%=      5-min Rain = 0
KNH1 211638Z 31013KT 27/01 A2991 RMK A01 T02710011  RH  018%=      5-min Rain = 0
KNH1 211639Z 31010G19KT 27/00 A2991 RMK A01 T02720004  RH  017%=      5-min Rain = 0
KNH1 211640Z 31011G16KT 27/01 A2991 RMK A01 T02730007  RH  018%=      5-min Rain = 0
KNH1 211641Z 31012KT 27/02 A2991 RMK A01 T02740020  RH  019%=      5-min Rain = 0
KNH1 211642Z 30013KT 28/01 A2991 RMK A01 T02750006  RH  017%=      5-min Rain = 0
KNH1 211643Z 30010G15KT 28/01 A2991 RMK A01 T02760012  RH  018%=      5-min Rain = 0
KNH1 211644Z 31012KT 28/01 A2991 RMK A01 T02770010  RH  018%=      5-min Rain = 0
KNH1 211645Z 31009KT 28/01 A2991 RMK A01 T02780014  RH  018%=      5-min Rain = 0
KNH1 211646Z 30013KT 28/02 A2991 RMK A01 T02790017  RH  018%=      5-min Rain = 0
KNH1 211647Z 30013KT 28/01 A2991 RMK A01 T02790008  RH  017%=      5-min Rain = 0
KNH1 211648Z 31014KT 28/00 A2991 RMK A01 T02790001  RH  016%=      5-min Rain = 0
KNH1 211649Z 30013KT 28/00 A2991 RMK A01 T02780003  RH  017%=      5-min Rain = 0
KNH1 211650Z 30013KT 28/01 A2991 RMK A01 T02770011  RH  018%=      5-min Rain = 0
KNH1 211651Z 31010KT 28/01 A2991 RMK A01 T02780009  RH  018%=      5-min Rain = 0
KNH1 211652Z 31012G18KT 28/01 A2991 RMK A01 T02780007  RH  017%=      5-min Rain = 0
KNH1 211653Z 32009KT 28/M01 A2991 RMK A01 T02781008  RH  015%=      5-min Rain = 0
KNH1 211654Z 31010G15KT 28/M01 A2991 RMK A01 T02781005  RH  016%=      5-min Rain = 0
KNH1 211655Z 32010KT 28/00 A2991 RMK A01 T02770001  RH  017%=      5-min Rain = 0
KNH1 211656Z 32011G18KT 28/00 A2991 RMK A01 T02770004  RH  017%=      5-min Rain = 0
KNH1 211657Z 30012KT 28/00 A2991 RMK A01 T02780002  RH  017%=      5-min Rain = 0
KNH1 211658Z 30013G19KT 28/00 A2991 RMK A01 T02780002  RH  017%=      5-min Rain = 0
KNH1 211659Z 29014KT 28/01 A2991 RMK A01 T02790005  RH  017%=      5-min Rain = 0
KNH1 211700Z 31008G14KT 28/01 A2991 RMK A01 T02780012  RH  018%=      5-min Rain = 0
KNH1 211701Z 30011G16KT 28/02 A2991 RMK A01 T02800017  RH  018%=      5-min Rain = 0
KNH1 211702Z 30013KT 28/00 A2991 RMK A01 T02810004  RH  017%=      5-min Rain = 0
KNH1 211703Z 30012KT 28/01 A2991 RMK A01 T02800012  RH  018%=      5-min Rain = 0
KNH1 211704Z 30012KT 28/01 A2991 RMK A01 T02800006  RH  017%=      5-min Rain = 0
KNH1 211705Z 31012KT 28/01 A2991 RMK A01 T02800006  RH  017%=      5-min Rain = 0
KNH1 211706Z 30013KT 28/01 A2991 RMK A01 T02800007  RH  017%=      5-min Rain = 0
KNH1 211707Z 31012KT 28/M00 A2991 RMK A01 T02801001  RH  016%=      5-min Rain = 0
KNH1 211708Z 32009G15KT 28/M01 A2991 RMK A01 T02801012  RH  015%=      5-min Rain = 0
KNH1 211709Z 30015KT 28/M01 A2991 RMK A01 T02801011  RH  015%=      5-min Rain = 0
KNH1 211710Z 29011KT 28/02 A2991 RMK A01 T02790016  RH  018%=      5-min Rain = 0
KNH1 211711Z 30014KT 28/02 A2991 RMK A01 T02800016  RH  018%=      5-min Rain = 0
KNH1 211712Z 29014KT 28/00 A2991 RMK A01 T02800004  RH  017%=      5-min Rain = 0
KNH1 211713Z 29011KT 28/00 A2991 RMK A01 T02790003  RH  017%=      5-min Rain = 0
KNH1 211714Z 30013KT 28/02 A2991 RMK A01 T02790017  RH  018%=      5-min Rain = 0
KNH1 211715Z 31009G14KT 28/01 A2991 RMK A01 T02800006  RH  017%=      5-min Rain = 0
KNH1 211716Z 31008G13KT 28/00 A2991 RMK A01 T028100-0  RH  016%=      5-min Rain = 0
KNH1 211717Z 31008KT 28/01 A2991 RMK A01 T02810008  RH  017%=      5-min Rain = 0
KNH1 211718Z 31009KT 28/00 A2991 RMK A01 T02820000  RH  016%=      5-min Rain = 0
KNH1 211719Z 31009G14KT 28/M00 A2991 RMK A01 T02821001  RH  016%=      5-min Rain = 0
KNH1 211720Z 30013KT 28/01 A2991 RMK A01 T02820011  RH  017%=      5-min Rain = 0
KNH1 211721Z 31011KT 28/00 A2991 RMK A01 T02830002  RH  016%=      5-min Rain = 0
KNH1 211722Z 29011G16KT 28/01 A2991 RMK A01 T02840011  RH  017%=      5-min Rain = 0
KNH1 211723Z 30010KT 28/01 A2991 RMK A01 T02830012  RH  017%=      5-min Rain = 0
KNH1 211724Z 29012KT 28/02 A2991 RMK A01 T02830020  RH  018%=      5-min Rain = 0
KNH1 211725Z 29015KT 28/01 A2991 RMK A01 T02830011  RH  017%=      5-min Rain = 0
KNH1 211726Z 30013KT 28/00 A2991 RMK A01 T02820004  RH  016%=      5-min Rain = 0
KNH1 211727Z 30007KT 28/02 A2991 RMK A01 T02820020  RH  019%=      5-min Rain = 0
KNH1 211728Z 32007KT 28/00 A2991 RMK A01 T02830003  RH  016%=      5-min Rain = 0
KNH1 211729Z 31008G13KT 28/00 A2991 RMK A01 T02840002  RH  016%=      5-min Rain = 0
KNH1 211730Z 30013KT 28/01 A2991 RMK A01 T02840009  RH  017%=      5-min Rain = 0
KNH1 211731Z 30012KT 28/01 A2991 RMK A01 T02840012  RH  017%=      5-min Rain = 0
KNH1 211732Z 30011KT 28/01 A2991 RMK A01 T02840011  RH  017%=      5-min Rain = 0
KNH1 211733Z 29008KT 28/00 A2991 RMK A01 T02820001  RH  016%=      5-min Rain = 0
KNH1 211734Z 31010KT 28/01 A2991 RMK A01 T02810007  RH  017%=      5-min Rain = 0
KNH1 211735Z 31008KT 28/00 A2991 RMK A01 T02810002  RH  016%=      5-min Rain = 0
KNH1 211736Z 31006KT 28/00 A2991 RMK A01 T02820003  RH  016%=      5-min Rain = 0
KNH1 211737Z 32007G14KT 28/00 A2991 RMK A01 T02840003  RH  016%=      5-min Rain = 0
KNH1 211738Z 31010KT 29/01 A2991 RMK A01 T02850005  RH  016%=      5-min Rain = 0
KNH1 211739Z 30011KT 29/02 A2991 RMK A01 T02860024  RH  019%=      5-min Rain = 0
KNH1 211740Z 29013KT 29/02 A2991 RMK A01 T02870016  RH  018%=      5-min Rain = 0
KNH1 211741Z 30009KT 29/02 A2991 RMK A01 T02870024  RH  018%=      5-min Rain = 0
KNH1 211742Z 30010KT 29/01 A2991 RMK A01 T02880007  RH  016%=      5-min Rain = 0
KNH1 211743Z 29008KT 29/01 A2991 RMK A01 T02860008  RH  017%=      5-min Rain = 0
KNH1 211744Z 32006KT 28/02 A2991 RMK A01 T02840024  RH  019%=      5-min Rain = 0
KNH1 211745Z 30007KT 29/02 A299 RMK A01 T02850015  RH  018%=      5-min Rain = 0
KNH1 211746Z 27009KT 29/03 A299 RMK A01 T02870026  RH  019%=      5-min Rain = 0
KNH1 211747Z 27011KT 29/01 A2991 RMK A01 T02880007  RH  016%=      5-min Rain = 0
KNH1 211748Z 28010KT 29/01 A2991 RMK A01 T02880011  RH  017%=      5-min Rain = 0
KNH1 211749Z 29013KT 29/01 A2991 RMK A01 T02870008  RH  016%=      5-min Rain = 0
KNH1 211750Z 29008KT 29/01 A2991 RMK A01 T02850014  RH  017%=      5-min Rain = 0
KNH1 211751Z 29008KT 29/02 A2991 RMK A01 T02850020  RH  018%=      5-min Rain = 0
KNH1 211752Z 32006KT 29/00 A299 RMK A01 T02850004  RH  016%=      5-min Rain = 0
KNH1 211753Z 31008KT 29/00 A299 RMK A01 T02860004  RH  016%=      5-min Rain = 0
KNH1 211754Z 32006KT 29/02 A299 RMK A01 T02870019  RH  018%=      5-min Rain = 0
KNH1 211755Z 29011KT 29/01 A2991 RMK A01 T02880014  RH  017%=      5-min Rain = 0
KNH1 211756Z 28012KT 29/02 A299 RMK A01 T02880016  RH  017%=      5-min Rain = 0
KNH1 211757Z 29012KT 29/02 A2991 RMK A01 T02870024  RH  018%=      5-min Rain = 0
KNH1 211758Z 29011KT 29/01 A2991 RMK A01 T02870008  RH  016%=      5-min Rain = 0
KNH1 211759Z 29009KT 29/02 A299 RMK A01 T02860022  RH  018%=      5-min Rain = 0
KNH1 211800Z 30008KT 29/03 A299 RMK A01 T02860026  RH  019%=      5-min Rain = 0
KNH1 211801Z 31010KT 29/00 A299 RMK A01 T02870004  RH  016%=      5-min Rain = 0
KNH1 211802Z 31010KT 29/00 A299 RMK A01 T02870004  RH  016%=      5-min Rain = 0
KNH1 211803Z 31009KT 29/00 A299 RMK A01 T028600-0  RH  016%=      5-min Rain = 0
KNH1 211804Z 28008KT 29/01 A299 RMK A01 T02860013  RH  017%=      5-min Rain = 0
KNH1 211805Z 26007KT 29/02 A299 RMK A01 T02860018  RH  018%=      5-min Rain = 0
KNH1 211806Z 27012KT 29/01 A299 RMK A01 T02880009  RH  016%=      5-min Rain = 0
KNH1 211807Z 25013KT 29/00 A299 RMK A01 T02920000  RH  015%=      5-min Rain = 0
KNH1 211808Z 25014KT 30/M01 A299 RMK A01 T02951011  RH  014%=      5-min Rain = 0
KNH1 211809Z 24010KT 30/M01 A299 RMK A01 T02961014  RH  013%=      5-min Rain = 0
KNH1 211810Z 25007KT 30/M02 A299 RMK A01 T02951015  RH  013%=      5-min Rain = 0
KNH1 211811Z 23010KT 29/M02 A299 RMK A01 T02931017  RH  013%=      5-min Rain = 0
KNH1 211812Z 25007G12KT 29/M01 A299 RMK A01 T02921013  RH  014%=      5-min Rain = 0
KNH1 211813Z 30009KT 29/01 A299 RMK A01 T02910011  RH  016%=      5-min Rain = 0
KNH1 211814Z 30007KT 29/00 A299 RMK A01 T02900000  RH  015%=      5-min Rain = 0
KNH1 211815Z 30009G14KT 29/02 A299 RMK A01 T02880019  RH  018%=      5-min Rain = 0
KNH1 211816Z 30009G15KT 29/02 A299 RMK A01 T02890022  RH  018%=      5-min Rain = 0
KNH1 211817Z 29011KT 29/02 A299 RMK A01 T02910020  RH  018%=      5-min Rain = 0
KNH1 211818Z 29010G15KT 29/03 A299 RMK A01 T02910032  RH  019%=      5-min Rain = 0
KNH1 211819Z 29011KT 29/03 A299 RMK A01 T02910027  RH  018%=      5-min Rain = 0
KNH1 211820Z 30010KT 29/01 A299 RMK A01 T02910012  RH  017%=      5-min Rain = 0
KNH1 211821Z 30013KT 29/01 A299 RMK A01 T02900010  RH  016%=      5-min Rain = 0
KNH1 211822Z 29010KT 29/01 A299 RMK A01 T02890012  RH  017%=      5-min Rain = 0
KNH1 211823Z 28010KT 29/01 A299 RMK A01 T02890011  RH  017%=      5-min Rain = 0
KNH1 211824Z 27012KT 29/01 A299 RMK A01 T02880013  RH  017%=      5-min Rain = 0
KNH1 211825Z 28014KT 29/01 A299 RMK A01 T02890010  RH  016%=      5-min Rain = 0
KNH1 211826Z 26012KT 29/01 A299 RMK A01 T02900010  RH  016%=      5-min Rain = 0
KNH1 211827Z 27009KT 29/M00 A299 RMK A01 T02901002  RH  015%=      5-min Rain = 0
KNH1 211828Z 27009KT 29/02 A299 RMK A01 T02920017  RH  017%=      5-min Rain = 0
KNH1 211829Z 26013KT 29/01 A299 RMK A01 T02930009  RH  016%=      5-min Rain = 0
KNH1 211830Z 25013KT 30/M01 A299 RMK A01 T02951009  RH  014%=      5-min Rain = 0
KNH1 211831Z 25011KT 30/M01 A299 RMK A01 T02961009  RH  014%=      5-min Rain = 0
KNH1 211832Z 25015KT 30/M01 A299 RMK A01 T03001006  RH  014%=      5-min Rain = 0
KNH1 211833Z 25015KT 30/M00 A299 RMK A01 T03021004  RH  014%=      5-min Rain = 0
KNH1 211834Z 25012G17KT 30/M01 A299 RMK A01 T03021010  RH  013%=      5-min Rain = 0
KNH1 211835Z 27013KT 30/00 A299 RMK A01 T03000001  RH  015%=      5-min Rain = 0
KNH1 211836Z 26013KT 30/00 A299 RMK A01 T02960000  RH  015%=      5-min Rain = 0
KNH1 211837Z 26011KT 29/01 A299 RMK A01 T02940009  RH  016%=      5-min Rain = 0
KNH1 211838Z 25011KT 29/M00 A2989 RMK A01 T02941004  RH  014%=      5-min Rain = 0
KNH1 211839Z 25012KT 30/M00 A2989 RMK A01 T02961003  RH  014%=      5-min Rain = 0
KNH1 211840Z 26008KT 30/M01 A2989 RMK A01 T02971007  RH  014%=      5-min Rain = 0
KNH1 211841Z 27005KT 30/01 A2989 RMK A01 T02960006  RH  015%=      5-min Rain = 0
KNH1 211842Z 27006KT 29/03 A2989 RMK A01 T02940025  RH  018%=      5-min Rain = 0
KNH1 211843Z 27008KT 29/01 A2989 RMK A01 T02930012  RH  016%=      5-min Rain = 0
KNH1 211844Z 26008KT 29/01 A2989 RMK A01 T02920007  RH  016%=      5-min Rain = 0
KNH1 211845Z 25013KT 30/01 A2989 RMK A01 T02960010  RH  016%=      5-min Rain = 0
KNH1 211846Z 23012KT 30/M01 A2989 RMK A01 T02981008  RH  014%=      5-min Rain = 0
KNH1 211847Z 24013KT 30/M02 A2989 RMK A01 T02991016  RH  013%=      5-min Rain = 0
KNH1 211848Z 25011KT 30/M01 A2989 RMK A01 T02991008  RH  014%=      5-min Rain = 0
KNH1 211849Z 24010KT 30/M01 A2989 RMK A01 T02991011  RH  013%=      5-min Rain = 0
KNH1 211850Z 24010KT 30/M01 A2989 RMK A01 T02991011  RH  013%=      5-min Rain = 0
KNH1 211851Z 23012KT 30/M02 A2989 RMK A01 T03011015  RH  013%=      5-min Rain = 0
KNH1 211852Z 23016KT 30/M01 A2989 RMK A01 T03021013  RH  013%=      5-min Rain = 0
KNH1 211853Z 24013KT 30/M02 A2989 RMK A01 T03041015  RH  013%=      5-min Rain = 0
KNH1 211854Z 26012KT 30/M01 A2989 RMK A01 T03041011  RH  013%=      5-min Rain = 0
KNH1 211855Z 26009KT 30/00 A2989 RMK A01 T03040004  RH  014%=      5-min Rain = 0
KNH1 211856Z 22011KT 30/M01 A2989 RMK A01 T03031006  RH  014%=      5-min Rain = 0
KNH1 211857Z 21012KT 31/M01 A2989 RMK A01 T03061007  RH  013%=      5-min Rain = 0
KNH1 211858Z 24012KT 31/M01 A2989 RMK A01 T03091014  RH  012%=      5-min Rain = 0
KNH1 211859Z 25015KT 31/M01 A2989 RMK A01 T03071006  RH  013%=      5-min Rain = 0
KNH1 211900Z 22010KT 31/M01 A2989 RMK A01 T03071005  RH  013%=      5-min Rain = 0
KNH1 211901Z 22014KT 31/M01 A2989 RMK A01 T03081013  RH  013%=      5-min Rain = 0
KNH1 211902Z 22013KT 31/M02 A2989 RMK A01 T03081015  RH  012%=      5-min Rain = 0
KNH1 211903Z 23012KT 31/M01 A2989 RMK A01 T03061014  RH  013%=      5-min Rain = 0
KNH1 211904Z 26011KT 30/M01 A2989 RMK A01 T03041007  RH  013%=      5-min Rain = 0
KNH1 211905Z 27012KT 30/01 A2989 RMK A01 T03030009  RH  015%=      5-min Rain = 0
KNH1 211906Z 26009KT 30/00 A2989 RMK A01 T02990003  RH  015%=      5-min Rain = 0
KNH1 211907Z 26010KT 30/M01 A2988 RMK A01 T02981007  RH  014%=      5-min Rain = 0
KNH1 211908Z 28011KT 30/01 A2988 RMK A01 T02980013  RH  016%=      5-min Rain = 0
KNH1 211909Z 27009KT 30/02 A2988 RMK A01 T02970018  RH  017%=      5-min Rain = 0
KNH1 211910Z 27006KT 30/02 A2988 RMK A01 T02950023  RH  017%=      5-min Rain = 0
KNH1 211911Z 23010KT 30/01 A2988 RMK A01 T02960005  RH  015%=      5-min Rain = 0
KNH1 211912Z 22014KT 30/00 A2988 RMK A01 T030200-0  RH  014%=      5-min Rain = 0
KNH1 211913Z 23014KT 31/M01 A2988 RMK A01 T03081006  RH  013%=      5-min Rain = 0
KNH1 211914Z 25015KT 31/00 A2988 RMK A01 T03090000  RH  014%=      5-min Rain = 0
KNH1 211915Z 24016KT 31/00 A2988 RMK A01 T03090001  RH  014%=      5-min Rain = 0
KNH1 211916Z 23014KT 31/M00 A2988 RMK A01 T03101002  RH  013%=      5-min Rain = 0
KNH1 211917Z 24012KT 31/M00 A2988 RMK A01 T03081004  RH  013%=      5-min Rain = 0
KNH1 211918Z 22010KT 30/01 A2988 RMK A01 T03040005  RH  015%=      5-min Rain = 0
KNH1 211919Z 21013KT 30/M01 A2988 RMK A01 T03041006  RH  013%=      5-min Rain = 0
KNH1 211920Z 22016KT 31/M01 A2988 RMK A01 T03091005  RH  013%=      5-min Rain = 0
KNH1 211921Z 23014KT 31/M01 A2988 RMK A01 T03101009  RH  013%=      5-min Rain = 0
KNH1 211922Z 24011KT 31/M01 A2988 RMK A01 T03081007  RH  013%=      5-min Rain = 0
KNH1 211923Z 28010KT 31/02 A2987 RMK A01 T03070017  RH  016%=      5-min Rain = 0
KNH1 211924Z 27008KT 30/03 A2987 RMK A01 T03040025  RH  017%=      5-min Rain = 0
KNH1 211925Z 23015KT 30/00 A2987 RMK A01 T030300-0  RH  014%=      5-min Rain = 0
KNH1 211926Z 24013KT 31/M00 A2987 RMK A01 T03061002  RH  014%=      5-min Rain = 0
KNH1 211927Z 23014KT 31/M00 A2987 RMK A01 T03081004  RH  013%=      5-min Rain = 0
KNH1 211928Z 24010KT 31/M01 A2987 RMK A01 T03061009  RH  013%=      5-min Rain = 0
KNH1 211929Z 23009KT 31/M01 A2987 RMK A01 T03051009  RH  013%=      5-min Rain = 0
KNH1 211930Z 23008KT 30/M01 A2987 RMK A01 T03041008  RH  013%=      5-min Rain = 0
KNH1 211931Z 20015KT 31/M01 A2987 RMK A01 T03051007  RH  013%=      5-min Rain = 0
KNH1 211932Z 21011KT 31/M01 A2987 RMK A01 T03101009  RH  013%=      5-min Rain = 0
KNH1 211933Z 22010KT 31/M01 A2987 RMK A01 T03091005  RH  013%=      5-min Rain = 0
KNH1 211934Z 24009KT 31/M00 A2987 RMK A01 T03091001  RH  014%=      5-min Rain = 0
KNH1 211935Z 25009KT 31/00 A2987 RMK A01 T03110001  RH  014%=      5-min Rain = 0
KNH1 211936Z 25011KT 31/M00 A2987 RMK A01 T03101001  RH  014%=      5-min Rain = 0
KNH1 211937Z 26012G18KT 31/01 A2987 RMK A01 T03070005  RH  014%=      5-min Rain = 0
KNH1 211938Z 24017KT 31/00 A2987 RMK A01 T03070001  RH  014%=      5-min Rain = 0
KNH1 211939Z 24016KT 31/M01 A2987 RMK A01 T03081006  RH  013%=      5-min Rain = 0
KNH1 211940Z 23010G15KT 31/M01 A2988 RMK A01 T03081007  RH  013%=      5-min Rain = 0
KNH1 211941Z 25005KT 31/00 A2987 RMK A01 T03050002  RH  014%=      5-min Rain = 0
KNH1 211942Z 24007KT 30/01 A2987 RMK A01 T03020005  RH  015%=      5-min Rain = 0
KNH1 211943Z 24015KT 31/00 A2988 RMK A01 T03060001  RH  014%=      5-min Rain = 0
KNH1 211944Z 24011KT 31/M01 A2987 RMK A01 T03101005  RH  013%=      5-min Rain = 0
KNH1 211945Z 28009KT 31/01 A2987 RMK A01 T03090007  RH  014%=      5-min Rain = 0
KNH1 211946Z 25015G20KT 31/01 A2987 RMK A01 T03050007  RH  015%=      5-min Rain = 0
KNH1 211947Z 25014G20KT 31/00 A2987 RMK A01 T03060000  RH  014%=      5-min Rain = 0
KNH1 211948Z 25016KT 31/M00 A2987 RMK A01 T03071003  RH  014%=      5-min Rain = 0
KNH1 211949Z 25016KT 31/M01 A2987 RMK A01 T03081008  RH  013%=      5-min Rain = 0
KNH1 211950Z 25013KT 31/M01 A2987 RMK A01 T03071010  RH  013%=      5-min Rain = 0
KNH1 211951Z 24011KT 31/M00 A2987 RMK A01 T03071004  RH  013%=      5-min Rain = 0
KNH1 211952Z 25010KT 31/M00 A2987 RMK A01 T03081002  RH  014%=      5-min Rain = 0
KNH1 211953Z 23010KT 31/M01 A2987 RMK A01 T03061008  RH  013%=      5-min Rain = 0
KNH1 211954Z 24012KT 31/M01 A2987 RMK A01 T03091007  RH  013%=      5-min Rain = 0
KNH1 211955Z 24017KT 31/M01 A2987 RMK A01 T03131011  RH  012%=      5-min Rain = 0
KNH1 211956Z 23018KT 32/M01 A2987 RMK A01 T03151012  RH  012%=      5-min Rain = 0
KNH1 211957Z 23017KT 32/M02 A2987 RMK A01 T03181015  RH  012%=      5-min Rain = 0
KNH1 211958Z 23014KT 32/M02 A2987 RMK A01 T03171015  RH  012%=      5-min Rain = 0
KNH1 211959Z 21012KT 31/M02 A2987 RMK A01 T03131024  RH  011%=      5-min Rain = 0
KNH1 212000Z 25013KT 31/M02 A2987 RMK A01 T03101016  RH  012%=      5-min Rain = 0
KNH1 212001Z 26016KT 31/M01 A2987 RMK A01 T03101010  RH  013%=      5-min Rain = 0
KNH1 212002Z 25012G18KT 31/M02 A2987 RMK A01 T03081017  RH  012%=      5-min Rain = 0
KNH1 212003Z 25008KT 31/M02 A2987 RMK A01 T03081015  RH  012%=      5-min Rain = 0
KNH1 212004Z 24008KT 31/M02 A2987 RMK A01 T03071016  RH  012%=      5-min Rain = 0
KNH1 212005Z 24008G13KT 31/M02 A2987 RMK A01 T03071018  RH  012%=      5-min Rain = 0
KNH1 212006Z 24014KT 31/M02 A2987 RMK A01 T03091017  RH  012%=      5-min Rain = 0
KNH1 212007Z 22014G20KT 32/M02 A2987 RMK A01 T03151017  RH  012%=      5-min Rain = 0
KNH1 212008Z 23016KT 32/M02 A2987 RMK A01 T03201021  RH  011%=      5-min Rain = 0
KNH1 212009Z 25016KT 32/M01 A2987 RMK A01 T03211009  RH  012%=      5-min Rain = 0
KNH1 212010Z 24019KT 32/M02 A2987 RMK A01 T03191017  RH  011%=      5-min Rain = 0
KNH1 212011Z 23019G24KT 32/M02 A2987 RMK A01 T03181021  RH  011%=      5-min Rain = 0
KNH1 212012Z 23018KT 32/M02 A2987 RMK A01 T03171021  RH  011%=      5-min Rain = 0
KNH1 212013Z 23015KT 32/M02 A2987 RMK A01 T03161021  RH  011%=      5-min Rain = 0
KNH1 212014Z 23015KT 32/M02 A2987 RMK A01 T03161022  RH  011%=      5-min Rain = 0
KNH1 212015Z 24016KT 32/M02 A2987 RMK A01 T03161022  RH  011%=      5-min Rain = 0
KNH1 212016Z 24012KT 32/M02 A2987 RMK A01 T03151020  RH  011%=      5-min Rain = 0
KNH1 212017Z 23009KT 31/M02 A2987 RMK A01 T03111017  RH  012%=      5-min Rain = 0
KNH1 212018Z 24008KT 31/M02 A2987 RMK A01 T03131018  RH  012%=      5-min Rain = 0
KNH1 212019Z 24009KT 31/M02 A2987 RMK A01 T03121015  RH  012%=      5-min Rain = 0
KNH1 212020Z 25011G16KT 31/M02 A2987 RMK A01 T03111015  RH  012%=      5-min Rain = 0
KNH1 212021Z 21011KT 31/M01 A2986 RMK A01 T03101012  RH  012%=      5-min Rain = 0
KNH1 212022Z 22013KT 31/M02 A2986 RMK A01 T03121019  RH  012%=      5-min Rain = 0
KNH1 212023Z 22011KT 31/M02 A2986 RMK A01 T03141019  RH  012%=      5-min Rain = 0
KNH1 212024Z 21015KT 32/M02 A2986 RMK A01 T03161021  RH  011%=      5-min Rain = 0
KNH1 212025Z 21013KT 32/M02 A2986 RMK A01 T03161022  RH  011%=      5-min Rain = 0
KNH1 212026Z 21016G21KT 32/M02 A2986 RMK A01 T03171019  RH  011%=      5-min Rain = 0
KNH1 212027Z 22020KT 32/M02 A2986 RMK A01 T03211016  RH  011%=      5-min Rain = 0
KNH1 212028Z 22020KT 33/M02 A2986 RMK A01 T03251016  RH  011%=      5-min Rain = 0
KNH1 212029Z 24016G21KT 33/M02 A2986 RMK A01 T03261015  RH  011%=      5-min Rain = 0
KNH1 212030Z 23016KT 33/M02 A2986 RMK A01 T03251015  RH  011%=      5-min Rain = 0
KNH1 212031Z 21016KT 32/M02 A2986 RMK A01 T03231017  RH  011%=      5-min Rain = 0
KNH1 212032Z 21016KT 32/M02 A2986 RMK A01 T03221024  RH  011%=      5-min Rain = 0
KNH1 212033Z 22015KT 32/M03 A2986 RMK A01 T03171025  RH  011%=      5-min Rain = 0
KNH1 212034Z 24014G19KT 31/M02 A2986 RMK A01 T03141023  RH  011%=      5-min Rain = 0
KNH1 212035Z 24018KT 32/M02 A2986 RMK A01 T03151017  RH  012%=      5-min Rain = 0
KNH1 212036Z 24018KT 32/M02 A2986 RMK A01 T03151018  RH  012%=      5-min Rain = 0
KNH1 212037Z 23016KT 32/M02 A2986 RMK A01 T03151019  RH  011%=      5-min Rain = 0
KNH1 212038Z 25011KT 31/M02 A2986 RMK A01 T03141018  RH  012%=      5-min Rain = 0
KNH1 212039Z 25016KT 31/M01 A2986 RMK A01 T03121010  RH  012%=      5-min Rain = 0
KNH1 212040Z 25017KT 31/M01 A2986 RMK A01 T03141010  RH  012%=      5-min Rain = 0
KNH1 212041Z 26020KT 32/M01 A2986 RMK A01 T03151012  RH  012%=      5-min Rain = 0
KNH1 212042Z 25023KT 32/M02 A2986 RMK A01 T03151015  RH  012%=      5-min Rain = 0
KNH1 212043Z 25019KT 31/M02 A2986 RMK A01 T03141021  RH  011%=      5-min Rain = 0
KNH1 212044Z 25017KT 31/M02 A2986 RMK A01 T03141018  RH  012%=      5-min Rain = 0
KNH1 212045Z 25018KT 32/M02 A2986 RMK A01 T03151019  RH  012%=      5-min Rain = 0
KNH1 212046Z 23012KT 31/M02 A2986 RMK A01 T03131020  RH  012%=      5-min Rain = 0
KNH1 212047Z 24009KT 31/M02 A2986 RMK A01 T03131021  RH  011%=      5-min Rain = 0
KNH1 212048Z 25009KT 31/M01 A2986 RMK A01 T03101009  RH  013%=      5-min Rain = 0
KNH1 212049Z 25012KT 31/M01 A2986 RMK A01 T03101010  RH  013%=      5-min Rain = 0
KNH1 212050Z 21014G21KT 31/M00 A2985 RMK A01 T03121004  RH  013%=      5-min Rain = 0
KNH1 212051Z 21017KT 32/M01 A2985 RMK A01 T03191012  RH  012%=      5-min Rain = 0
KNH1 212052Z 24019KT 32/M02 A2985 RMK A01 T03231016  RH  011%=      5-min Rain = 0
KNH1 212053Z 23018KT 32/M03 A2986 RMK A01 T03231028  RH  010%=      5-min Rain = 0
KNH1 212054Z 24018KT 32/M03 A2986 RMK A01 T03231025  RH  011%=      5-min Rain = 0
KNH1 212055Z 25017KT 32/M02 A2986 RMK A01 T03191024  RH  011%=      5-min Rain = 0
KNH1 212056Z 23018G24KT 32/M02 A2986 RMK A01 T03171021  RH  011%=      5-min Rain = 0
KNH1 212057Z 23017KT 32/M02 A2986 RMK A01 T03181024  RH  011%=      5-min Rain = 0
KNH1 212058Z 23019G24KT 32/M03 A2986 RMK A01 T03201025  RH  011%=      5-min Rain = 0
KNH1 212059Z 23020KT 32/M03 A2986 RMK A01 T03191027  RH  011%=      5-min Rain = 0
KNH1 212100Z 24018KT 32/M02 A2986 RMK A01 T03181023  RH  011%=      5-min Rain = 0
KNH1 212101Z 24017KT 32/M02 A2985 RMK A01 T03161024  RH  011%=      5-min Rain = 0
KNH1 212102Z 23020KT 32/M02 A2985 RMK A01 T03161021  RH  011%=      5-min Rain = 0
KNH1 212103Z 23019KT 32/M02 A2985 RMK A01 T03181024  RH  011%=      5-min Rain = 0
KNH1 212104Z 23019KT 32/M03 A2985 RMK A01 T03181029  RH  011%=      5-min Rain = 0
KNH1 212105Z 22018KT 32/M03 A2985 RMK A01 T03161026  RH  011%=      5-min Rain = 0
KNH1 212106Z 24016KT 32/M02 A2985 RMK A01 T03171024  RH  011%=      5-min Rain = 0
KNH1 212107Z 24015KT 32/M03 A2985 RMK A01 T03161026  RH  011%=      5-min Rain = 0
KNH1 212108Z 24018KT 32/M03 A2985 RMK A01 T03151028  RH  011%=      5-min Rain = 0
KNH1 212109Z 24020KT 31/M03 A2985 RMK A01 T03141027  RH  011%=      5-min Rain = 0
KNH1 212110Z 24014KT 32/M02 A2985 RMK A01 T03151023  RH  011%=      5-min Rain = 0
KNH1 212111Z 23011KT 32/M02 A2985 RMK A01 T03181020  RH  011%=      5-min Rain = 0
KNH1 212112Z 24010KT 32/M02 A2985 RMK A01 T03161024  RH  011%=      5-min Rain = 0
KNH1 212113Z 23010G15KT 31/M02 A2985 RMK A01 T03111022  RH  012%=      5-min Rain = 0
KNH1 212114Z 22016KT 31/M02 A2985 RMK A01 T03141024  RH  011%=      5-min Rain = 0
KNH1 212115Z 23017KT 32/M03 A2985 RMK A01 T03191027  RH  011%=      5-min Rain = 0
KNH1 212116Z 24011KT 32/M03 A2985 RMK A01 T03151029  RH  011%=      5-min Rain = 0
KNH1 212117Z 22009KT 31/M02 A2985 RMK A01 T03121023  RH  011%=      5-min Rain = 0
KNH1 212118Z 23011KT 31/M03 A2985 RMK A01 T03121026  RH  011%=      5-min Rain = 0
KNH1 212119Z 23015KT 31/M02 A2985 RMK A01 T03131022  RH  011%=      5-min Rain = 0
KNH1 212120Z 23015KT 31/M02 A2985 RMK A01 T03141020  RH  011%=      5-min Rain = 0
KNH1 212121Z 22018KT 32/M02 A2985 RMK A01 T03191020  RH  011%=      5-min Rain = 0
KNH1 212122Z 22020KT 32/M03 A2985 RMK A01 T03201025  RH  011%=      5-min Rain = 0
KNH1 212123Z 23016KT 32/M02 A2984 RMK A01 T03191020  RH  011%=      5-min Rain = 0
KNH1 212124Z 22016G22KT 32/M01 A2984 RMK A01 T03241012  RH  012%=      5-min Rain = 0
KNH1 212125Z 22019KT 33/M02 A2984 RMK A01 T03271021  RH  011%=      5-min Rain = 0
KNH1 212126Z 23019KT 32/M02 A2985 RMK A01 T03221023  RH  011%=      5-min Rain = 0
KNH1 212127Z 23017KT 32/M02 A2985 RMK A01 T03191020  RH  011%=      5-min Rain = 0
KNH1 212128Z 24013KT 32/M02 A2985 RMK A01 T03191019  RH  011%=      5-min Rain = 0
KNH1 212129Z 24018KT 32/M02 A2984 RMK A01 T03181020  RH  011%=      5-min Rain = 0
KNH1 212130Z 24018KT 32/M02 A2984 RMK A01 T03171018  RH  011%=      5-min Rain = 0
KNH1 212131Z 24017KT 32/M02 A2984 RMK A01 T03191017  RH  011%=      5-min Rain = 0
KNH1 212132Z 25016KT 32/M02 A2984 RMK A01 T03171021  RH  011%=      5-min Rain = 0
KNH1 212133Z 26016KT 31/M02 A2984 RMK A01 T03141016  RH  012%=      5-min Rain = 0
KNH1 212134Z 25014KT 31/M01 A2984 RMK A01 T03111012  RH  012%=      5-min Rain = 0
KNH1 212135Z 25014G19KT 31/M01 A2984 RMK A01 T03101010  RH  013%=      5-min Rain = 0
KNH1 212136Z 24015G20KT 31/M01 A2984 RMK A01 T03121013  RH  012%=      5-min Rain = 0
KNH1 212137Z 25014KT 31/M01 A2984 RMK A01 T03131014  RH  012%=      5-min Rain = 0
KNH1 212138Z 25013KT 31/M01 A2984 RMK A01 T03121012  RH  012%=      5-min Rain = 0
KNH1 212139Z 25011KT 31/M01 A2984 RMK A01 T03121012  RH  012%=      5-min Rain = 0
KNH1 212140Z 23008KT 31/M01 A2984 RMK A01 T03131012  RH  012%=      5-min Rain = 0
KNH1 212141Z 25010KT 31/M01 A2984 RMK A01 T03121012  RH  012%=      5-min Rain = 0
KNH1 212142Z 24012KT 31/M01 A2984 RMK A01 T03121010  RH  013%=      5-min Rain = 0
KNH1 212143Z 22014KT 31/M01 A2984 RMK A01 T03131014  RH  012%=      5-min Rain = 0
KNH1 212144Z 25015KT 32/M01 A2984 RMK A01 T03171011  RH  012%=      5-min Rain = 0
KNH1 212145Z 25020KT 32/M02 A2984 RMK A01 T03171019  RH  011%=      5-min Rain = 0
KNH1 212146Z 25019KT 32/M02 A2984 RMK A01 T03181021  RH  011%=      5-min Rain = 0
KNH1 212147Z 25016KT 32/M02 A2984 RMK A01 T03161022  RH  011%=      5-min Rain = 0
KNH1 212148Z 26015KT 32/M02 A2984 RMK A01 T03151023  RH  011%=      5-min Rain = 0
KNH1 212149Z 26013KT 31/M02 A2984 RMK A01 T03121020  RH  012%=      5-min Rain = 0
KNH1 212150Z 25013KT 31/M02 A2984 RMK A01 T03101023  RH  011%=      5-min Rain = 0
KNH1 212151Z 25014KT 31/M03 A2984 RMK A01 T03101026  RH  011%=      5-min Rain = 0
KNH1 212152Z 26014KT 31/M01 A2984 RMK A01 T03111014  RH  012%=      5-min Rain = 0
KNH1 212153Z 26015KT 31/M01 A2984 RMK A01 T03131011  RH  012%=      5-min Rain = 0
KNH1 212154Z 25017G22KT 31/M01 A2984 RMK A01 T03121011  RH  012%=      5-min Rain = 0
KNH1 212155Z 24016KT 31/M02 A2984 RMK A01 T03121020  RH  012%=      5-min Rain = 0
KNH1 212156Z 23017G23KT 31/M02 A2984 RMK A01 T03121020  RH  012%=      5-min Rain = 0
KNH1 212157Z 24021KT 32/M02 A2983 RMK A01 T03151018  RH  012%=      5-min Rain = 0
KNH1 212158Z 24020KT 32/M02 A2984 RMK A01 T03171018  RH  011%=      5-min Rain = 0
KNH1 212159Z 24019KT 32/M02 A2984 RMK A01 T03171022  RH  011%=      5-min Rain = 0
KNH1 212200Z 24016KT 32/M02 A2984 RMK A01 T03161021  RH  011%=      5-min Rain = 0
KNH1 212201Z 25016KT 32/M02 A2983 RMK A01 T03161019  RH  011%=      5-min Rain = 0
KNH1 212202Z 24016KT 31/M02 A2984 RMK A01 T03141021  RH  011%=      5-min Rain = 0
KNH1 212203Z 24015KT 31/M02 A2983 RMK A01 T03131019  RH  012%=      5-min Rain = 0
KNH1 212204Z 25015KT 32/M01 A2984 RMK A01 T03171010  RH  012%=      5-min Rain = 0
KNH1 212205Z 24013KT 32/M01 A2983 RMK A01 T03151010  RH  012%=      5-min Rain = 0
KNH1 212206Z 23010KT 31/M01 A2983 RMK A01 T03131011  RH  012%=      5-min Rain = 0
KNH1 212207Z 21011KT 31/M01 A2983 RMK A01 T03121013  RH  012%=      5-min Rain = 0
KNH1 212208Z 23012KT 31/M01 A2983 RMK A01 T03141014  RH  012%=      5-min Rain = 0
KNH1 212209Z 26016KT 32/M00 A2984 RMK A01 T03151003  RH  013%=      5-min Rain = 0
KNH1 212210Z 23012KT 32/M01 A2983 RMK A01 T03151005  RH  013%=      5-min Rain = 0
KNH1 212211Z 22012G18KT 32/M01 A2983 RMK A01 T03161014  RH  012%=      5-min Rain = 0
KNH1 212212Z 24016KT 32/M01 A2984 RMK A01 T03171010  RH  012%=      5-min Rain = 0
KNH1 212213Z 25017KT 32/M01 A2983 RMK A01 T03171006  RH  013%=      5-min Rain = 0
KNH1 212214Z 24018KT 32/M01 A2983 RMK A01 T03161009  RH  012%=      5-min Rain = 0
KNH1 212215Z 26014KT 32/M01 A2984 RMK A01 T03151006  RH  013%=      5-min Rain = 0
KNH1 212216Z 25015KT 31/M01 A2983 RMK A01 T03131007  RH  013%=      5-min Rain = 0
KNH1 212217Z 27014KT 31/M00 A2983 RMK A01 T03121004  RH  013%=      5-min Rain = 0
KNH1 212218Z 25013KT 31/00 A2984 RMK A01 T03100001  RH  014%=      5-min Rain = 0
KNH1 212219Z 23015KT 31/M01 A2984 RMK A01 T03101010  RH  013%=      5-min Rain = 0
KNH1 212220Z 22015KT 32/M01 A2984 RMK A01 T03151013  RH  012%=      5-min Rain = 0
KNH1 212221Z 22014KT 32/M02 A2984 RMK A01 T03181022  RH  011%=      5-min Rain = 0
KNH1 212222Z 22017KT 32/M02 A2984 RMK A01 T03171019  RH  011%=      5-min Rain = 0
KNH1 212223Z 22018KT 32/M02 A2984 RMK A01 T03191018  RH  011%=      5-min Rain = 0
KNH1 212224Z 21017KT 32/M03 A2984 RMK A01 T03191025  RH  011%=      5-min Rain = 0
KNH1 212225Z 21014KT 32/M02 A2983 RMK A01 T03181022  RH  011%=      5-min Rain = 0
KNH1 212226Z 21020KT 32/M02 A2983 RMK A01 T03191021  RH  011%=      5-min Rain = 0
KNH1 212227Z 22022KT 32/M02 A2983 RMK A01 T03211021  RH  011%=      5-min Rain = 0
KNH1 212228Z 22021KT 32/M02 A2983 RMK A01 T03221023  RH  011%=      5-min Rain = 0
KNH1 212229Z 22021KT 32/M03 A2983 RMK A01 T03201028  RH  010%=      5-min Rain = 0
KNH1 212230Z 23018G23KT 32/M03 A2984 RMK A01 T03181027  RH  011%=      5-min Rain = 0
KNH1 212231Z 24018G23KT 32/M03 A2983 RMK A01 T03171025  RH  011%=      5-min Rain = 0
KNH1 212232Z 24018KT 32/M03 A2983 RMK A01 T03171026  RH  011%=      5-min Rain = 0
KNH1 212233Z 24014KT 32/M03 A2984 RMK A01 T03171025  RH  011%=      5-min Rain = 0
KNH1 212234Z 23014KT 32/M03 A2983 RMK A01 T03181027  RH  011%=      5-min Rain = 0
KNH1 212235Z 23016G21KT 32/M03 A2983 RMK A01 T03161027  RH  011%=      5-min Rain = 0
KNH1 212236Z 21018KT 32/M03 A2983 RMK A01 T03161028  RH  011%=      5-min Rain = 0
KNH1 212237Z 21018KT 32/M03 A2983 RMK A01 T03181029  RH  011%=      5-min Rain = 0
KNH1 212238Z 21018KT 32/M03 A2983 RMK A01 T03191034  RH  010%=      5-min Rain = 0
KNH1 212239Z 22019KT 32/M03 A2983 RMK A01 T03171031  RH  010%=      5-min Rain = 0
KNH1 212240Z 23018KT 32/M03 A2983 RMK A01 T03171031  RH  010%=      5-min Rain = 0
KNH1 212241Z 23020KT 32/M03 A2983 RMK A01 T03161031  RH  010%=      5-min Rain = 0
KNH1 212242Z 22018KT 32/M03 A2983 RMK A01 T03151030  RH  011%=      5-min Rain = 0
KNH1 212243Z 22014KT 31/M03 A2983 RMK A01 T03141028  RH  011%=      5-min Rain = 0
KNH1 212244Z 23016KT 32/M03 A2983 RMK A01 T03161027  RH  011%=      5-min Rain = 0
KNH1 212245Z 23017KT 32/M02 A2983 RMK A01 T03171024  RH  011%=      5-min Rain = 0
KNH1 212246Z 22016KT 32/M02 A2983 RMK A01 T03191021  RH  011%=      5-min Rain = 0
KNH1 212247Z 22017KT 32/M03 A2983 RMK A01 T03201027  RH  011%=      5-min Rain = 0
KNH1 212248Z 23014KT 32/M03 A2983 RMK A01 T03161030  RH  011%=      5-min Rain = 0
KNH1 212249Z 22014KT 31/M03 A2983 RMK A01 T03141027  RH  011%=      5-min Rain = 0
KNH1 212250Z 21018KT 31/M03 A2983 RMK A01 T03141027  RH  011%=      5-min Rain = 0
KNH1 212251Z 21018KT 31/M03 A2983 RMK A01 T03141027  RH  011%=      5-min Rain = 0
KNH1 212252Z 21015KT 32/M03 A2983 RMK A01 T03151025  RH  011%=      5-min Rain = 0
KNH1 212253Z 22015KT 32/M02 A2983 RMK A01 T03161023  RH  011%=      5-min Rain = 0
KNH1 212254Z 22018KT 32/M03 A2983 RMK A01 T03191029  RH  010%=      5-min Rain = 0
KNH1 212255Z 23018KT 32/M03 A2983 RMK A01 T03191031  RH  010%=      5-min Rain = 0
KNH1 212256Z 24016KT 32/M03 A2983 RMK A01 T03191030  RH  010%=      5-min Rain = 0
KNH1 212257Z 23015KT 32/M03 A2984 RMK A01 T03181034  RH  010%=      5-min Rain = 0
KNH1 212258Z 23016KT 32/M04 A2984 RMK A01 T03161035  RH  010%=      5-min Rain = 0
KNH1 212259Z 24017KT 32/M03 A2984 RMK A01 T03151032  RH  010%=      5-min Rain = 0
KNH1 212300Z 23016KT 32/M03 A2983 RMK A01 T03151032  RH  010%=      5-min Rain = 0
KNH1 212301Z 23015KT 32/M03 A2984 RMK A01 T03161030  RH  011%=      5-min Rain = 0
KNH1 212302Z 22016KT 32/M03 A2984 RMK A01 T03171032  RH  010%=      5-min Rain = 0
KNH1 212303Z 22013KT 32/M03 A2983 RMK A01 T03171028  RH  011%=      5-min Rain = 0
KNH1 212304Z 21013KT 32/M03 A2983 RMK A01 T03171031  RH  010%=      5-min Rain = 0
KNH1 212305Z 23017KT 32/M03 A2983 RMK A01 T03161029  RH  011%=      5-min Rain = 0
KNH1 212306Z 24019G24KT 32/M02 A2983 RMK A01 T03161023  RH  011%=      5-min Rain = 0
KNH1 212307Z 24016KT 32/M03 A2984 RMK A01 T03161026  RH  011%=      5-min Rain = 0
KNH1 212308Z 24016KT 32/M02 A2984 RMK A01 T03151024  RH  011%=      5-min Rain = 0
KNH1 212309Z 24016KT 31/M03 A2983 RMK A01 T03131025  RH  011%=      5-min Rain = 0
KNH1 212310Z 23015G20KT 31/M02 A2983 RMK A01 T03121023  RH  011%=      5-min Rain = 0
KNH1 212311Z 23019KT 31/M02 A2984 RMK A01 T03121023  RH  011%=      5-min Rain = 0
KNH1 212312Z 23016KT 31/M02 A2984 RMK A01 T03121023  RH  011%=      5-min Rain = 0
KNH1 212313Z 23013KT 31/M02 A2984 RMK A01 T03121024  RH  011%=      5-min Rain = 0
KNH1 212314Z 22013KT 31/M03 A2983 RMK A01 T03101027  RH  011%=      5-min Rain = 0
KNH1 212315Z 22011KT 31/M02 A2983 RMK A01 T03091023  RH  011%=      5-min Rain = 0
KNH1 212316Z 22015KT 31/M02 A2983 RMK A01 T03111021  RH  012%=      5-min Rain = 0
KNH1 212317Z 23017G22KT 31/M02 A2983 RMK A01 T03121018  RH  012%=      5-min Rain = 0
KNH1 212318Z 22015KT 31/M02 A2983 RMK A01 T03131019  RH  012%=      5-min Rain = 0
KNH1 212319Z 22014KT 31/M02 A2983 RMK A01 T03121018  RH  012%=      5-min Rain = 0
KNH1 212320Z 24019KT 31/M02 A2983 RMK A01 T03121017  RH  012%=      5-min Rain = 0
KNH1 212321Z 23018KT 31/M02 A2983 RMK A01 T03121022  RH  011%=      5-min Rain = 0
KNH1 212322Z 23015KT 31/M02 A2983 RMK A01 T03111018  RH  012%=      5-min Rain = 0
KNH1 212323Z 23017KT 31/M02 A2983 RMK A01 T03121016  RH  012%=      5-min Rain = 0
KNH1 212324Z 23016KT 31/M02 A2983 RMK A01 T03121017  RH  012%=      5-min Rain = 0
KNH1 212325Z 23016KT 31/M02 A2983 RMK A01 T03121017  RH  012%=      5-min Rain = 0
KNH1 212326Z 22013KT 31/M01 A2983 RMK A01 T03121014  RH  012%=      5-min Rain = 0
KNH1 212327Z 22014KT 31/M02 A2983 RMK A01 T03121019  RH  012%=      5-min Rain = 0
KNH1 212328Z 23014KT 31/M02 A2983 RMK A01 T03121017  RH  012%=      5-min Rain = 0
KNH1 212329Z 23015KT 31/M02 A2983 RMK A01 T03111015  RH  012%=      5-min Rain = 0
KNH1 212330Z 22016KT 31/M02 A2983 RMK A01 T03111018  RH  012%=      5-min Rain = 0
KNH1 212331Z 22016KT 31/M02 A2983 RMK A01 T03111019  RH  012%=      5-min Rain = 0
KNH1 212332Z 22014KT 31/M02 A2983 RMK A01 T03111020  RH  012%=      5-min Rain = 0
KNH1 212333Z 23015KT 31/M03 A2983 RMK A01 T03111027  RH  011%=      5-min Rain = 0
KNH1 212334Z 23019KT 31/M02 A2983 RMK A01 T03111022  RH  011%=      5-min Rain = 0
KNH1 212335Z 23018KT 31/M02 A2983 RMK A01 T03111022  RH  012%=      5-min Rain = 0
KNH1 212336Z 23018KT 31/M02 A2983 RMK A01 T03121022  RH  011%=      5-min Rain = 0
KNH1 212337Z 24017G22KT 31/M02 A2983 RMK A01 T03121021  RH  012%=      5-min Rain = 0
KNH1 212338Z 23018G23KT 31/M02 A2983 RMK A01 T03121024  RH  011%=      5-min Rain = 0
KNH1 212339Z 23017KT 31/M03 A2983 RMK A01 T03111025  RH  011%=      5-min Rain = 0
KNH1 212340Z 24017KT 31/M03 A2983 RMK A01 T03111025  RH  011%=      5-min Rain = 0
KNH1 212341Z 24016KT 31/M03 A2983 RMK A01 T03101028  RH  011%=      5-min Rain = 0
KNH1 212342Z 23018KT 31/M03 A2983 RMK A01 T03091027  RH  011%=      5-min Rain = 0
KNH1 212343Z 23018KT 31/M03 A2983 RMK A01 T03091029  RH  011%=      5-min Rain = 0
KNH1 212344Z 23018KT 31/M03 A2983 RMK A01 T03091028  RH  011%=      5-min Rain = 0
KNH1 212345Z 23018KT 31/M03 A2983 RMK A01 T03091028  RH  011%=      5-min Rain = 0
KNH1 212346Z 24018KT 31/M03 A2983 RMK A01 T03091030  RH  011%=      5-min Rain = 0
KNH1 212347Z 24015KT 31/M03 A2983 RMK A01 T03091025  RH  011%=      5-min Rain = 0
KNH1 212348Z 24017KT 31/M02 A2983 RMK A01 T03091021  RH  012%=      5-min Rain = 0
KNH1 212349Z 24015KT 31/M02 A2983 RMK A01 T03101018  RH  012%=      5-min Rain = 0
KNH1 212350Z 24018G23KT 31/M02 A2983 RMK A01 T03101020  RH  012%=      5-min Rain = 0
KNH1 212351Z 24018KT 31/M03 A2983 RMK A01 T03091025  RH  011%=      5-min Rain = 0
KNH1 212352Z 24018KT 31/M03 A2983 RMK A01 T03091025  RH  011%=      5-min Rain = 0
KNH1 212353Z 24018KT 31/M03 A2983 RMK A01 T03081027  RH  011%=      5-min Rain = 0
KNH1 212354Z 23017KT 31/M03 A2983 RMK A01 T03081027  RH  011%=      5-min Rain = 0
KNH1 212355Z 23015KT 31/M03 A2983 RMK A01 T03071027  RH  011%=      5-min Rain = 0
KNH1 212356Z 22014KT 31/M03 A2983 RMK A01 T03071027  RH  011%=      5-min Rain = 0
KNH1 212357Z 22015KT 31/M02 A2983 RMK A01 T03081024  RH  012%=      5-min Rain = 0
KNH1 212358Z 23016KT 31/M02 A2983 RMK A01 T03081021  RH  012%=      5-min Rain = 0
KNH1 212359Z 22017KT 31/M01 A2983 RMK A01 T03081010  RH  013%=      5-min Rain = 0
KNH1 220000Z 21018KT 31/M00 A2983 RMK A01 T03081003  RH  013%=      5-min Rain = 0
KNH1 220001Z 20017KT 31/M00 A2983 RMK A01 T03061001  RH  014%=      5-min Rain = 0
KNH1 220002Z 20017KT 31/00 A2983 RMK A01 T030500-0  RH  014%=      5-min Rain = 0
KNH1 220003Z 20020KT 30/00 A2983 RMK A01 T03040001  RH  014%=      5-min Rain = 0
KNH1 220004Z 21019KT 30/01 A2983 RMK A01 T03040005  RH  015%=      5-min Rain = 0
KNH1 220005Z 21014KT 30/00 A2984 RMK A01 T03030004  RH  015%=      5-min Rain = 0
KNH1 220006Z 22016KT 30/00 A2983 RMK A01 T03030004  RH  015%=      5-min Rain = 0
KNH1 220007Z 21014KT 30/00 A2984 RMK A01 T03040004  RH  015%=      5-min Rain = 0
KNH1 220008Z 20016KT 30/01 A2984 RMK A01 T03030005  RH  015%=      5-min Rain = 0
KNH1 220009Z 20017KT 30/00 A2984 RMK A01 T03030001  RH  014%=      5-min Rain = 0
KNH1 220010Z 21016KT 30/M00 A2984 RMK A01 T03021001  RH  014%=      5-min Rain = 0
KNH1 220011Z 21015KT 30/00 A2984 RMK A01 T03020002  RH  014%=      5-min Rain = 0
KNH1 220012Z 21014KT 30/00 A2984 RMK A01 T03010003  RH  015%=      5-min Rain = 0
KNH1 220013Z 20017KT 30/00 A2984 RMK A01 T03010003  RH  015%=      5-min Rain = 0
KNH1 220014Z 20018KT 30/00 A2984 RMK A01 T03000003  RH  015%=      5-min Rain = 0
KNH1 220015Z 20015KT 30/01 A2984 RMK A01 T02990007  RH  015%=      5-min Rain = 0
KNH1 220016Z 20014KT 30/01 A2984 RMK A01 T02990008  RH  015%=      5-min Rain = 0
KNH1 220017Z 20017KT 30/01 A2984 RMK A01 T02990008  RH  015%=      5-min Rain = 0
KNH1 220018Z 20014KT 30/01 A2984 RMK A01 T02990007  RH  015%=      5-min Rain = 0
KNH1 220019Z 20015KT 30/01 A2984 RMK A01 T02980007  RH  015%=      5-min Rain = 0
KNH1 220020Z 20013KT 30/01 A2984 RMK A01 T02980009  RH  016%=      5-min Rain = 0
KNH1 220021Z 19015KT 30/01 A2984 RMK A01 T02980008  RH  016%=      5-min Rain = 0
KNH1 220022Z 19015KT 30/01 A2984 RMK A01 T02970009  RH  016%=      5-min Rain = 0
KNH1 220023Z 19016KT 30/01 A2984 RMK A01 T02960011  RH  016%=      5-min Rain = 0
KNH1 220024Z 19016KT 30/01 A2984 RMK A01 T02950013  RH  016%=      5-min Rain = 0
KNH1 220025Z 20014KT 30/02 A2984 RMK A01 T02950016  RH  017%=      5-min Rain = 0
KNH1 220026Z 20018KT 29/01 A2984 RMK A01 T02940010  RH  016%=      5-min Rain = 0
KNH1 220027Z 20015KT 29/01 A2984 RMK A01 T02940009  RH  016%=      5-min Rain = 0
KNH1 220028Z 20015KT 29/01 A2984 RMK A01 T02940010  RH  016%=      5-min Rain = 0
KNH1 220029Z 20016KT 29/01 A2984 RMK A01 T02930011  RH  016%=      5-min Rain = 0
KNH1 220030Z 20015KT 29/01 A2984 RMK A01 T02930012  RH  016%=      5-min Rain = 0
KNH1 220031Z 20014KT 29/01 A2984 RMK A01 T02920010  RH  016%=      5-min Rain = 0
KNH1 220032Z 20014KT 29/01 A2984 RMK A01 T02920011  RH  016%=      5-min Rain = 0
KNH1 220033Z 20012KT 29/01 A2984 RMK A01 T02910013  RH  017%=      5-min Rain = 0
KNH1 220034Z 19011KT 29/01 A2984 RMK A01 T02910013  RH  017%=      5-min Rain = 0
KNH1 220035Z 20015KT 29/01 A2984 RMK A01 T02900012  RH  017%=      5-min Rain = 0
KNH1 220036Z 20013KT 29/01 A2984 RMK A01 T02890011  RH  017%=      5-min Rain = 0
KNH1 220037Z 20014KT 29/01 A2984 RMK A01 T02890011  RH  017%=      5-min Rain = 0
KNH1 220038Z 20013KT 29/01 A2984 RMK A01 T02890010  RH  017%=      5-min Rain = 0
KNH1 220039Z 19012KT 29/01 A2984 RMK A01 T02880012  RH  017%=      5-min Rain = 0
KNH1 220040Z 19011KT 29/01 A2984 RMK A01 T02880014  RH  017%=      5-min Rain = 0
KNH1 220041Z 19012KT 29/02 A2984 RMK A01 T02860015  RH  017%=      5-min Rain = 0
KNH1 220042Z 19012KT 29/02 A2984 RMK A01 T02860016  RH  018%=      5-min Rain = 0
KNH1 220043Z 19011KT 29/02 A2984 RMK A01 T02850016  RH  018%=      5-min Rain = 0
KNH1 220044Z 19012KT 28/02 A2984 RMK A01 T02840017  RH  018%=      5-min Rain = 0
KNH1 220045Z 19012KT 28/02 A2984 RMK A01 T02830016  RH  018%=      5-min Rain = 0
KNH1 220046Z 19011KT 28/02 A2984 RMK A01 T02830017  RH  018%=      5-min Rain = 0
KNH1 220047Z 19012KT 28/02 A2984 RMK A01 T02820018  RH  018%=      5-min Rain = 0
KNH1 220048Z 19011KT 28/02 A2984 RMK A01 T02810018  RH  018%=      5-min Rain = 0
KNH1 220049Z 19010KT 28/02 A2984 RMK A01 T02800019  RH  019%=      5-min Rain = 0
KNH1 220050Z 19011KT 28/02 A2984 RMK A01 T02790020  RH  019%=      5-min Rain = 0
KNH1 220051Z 19010KT 28/02 A2984 RMK A01 T02790021  RH  019%=      5-min Rain = 0
KNH1 220052Z 19010KT 28/02 A2984 RMK A01 T02780022  RH  019%=      5-min Rain = 0
KNH1 220053Z 19010KT 28/02 A2984 RMK A01 T02770023  RH  019%=      5-min Rain = 0
KNH1 220054Z 19010KT 28/02 A2984 RMK A01 T02760022  RH  019%=      5-min Rain = 0
KNH1 220055Z 19010KT 28/02 A2984 RMK A01 T02750021  RH  019%=      5-min Rain = 0
KNH1 220056Z 19010KT 27/02 A2984 RMK A01 T02740021  RH  019%=      5-min Rain = 0
KNH1 220057Z 19010KT 27/02 A2984 RMK A01 T02740020  RH  019%=      5-min Rain = 0
KNH1 220058Z 19010KT 27/02 A2984 RMK A01 T02730020  RH  019%=      5-min Rain = 0
KNH1 220059Z 19009KT 27/02 A2984 RMK A01 T02730019  RH  019%=      5-min Rain = 0
KNH1 220100Z 19009KT 27/02 A2984 RMK A01 T02720019  RH  019%=      5-min Rain = 0
KNH1 220101Z 19009KT 27/02 A2985 RMK A01 T02710020  RH  020%=      5-min Rain = 0
KNH1 220102Z 19009KT 27/02 A2985 RMK A01 T02700019  RH  020%=      5-min Rain = 0
KNH1 220103Z 19010KT 27/02 A2985 RMK A01 T02700019  RH  020%=      5-min Rain = 0
KNH1 220104Z 19011KT 27/02 A2985 RMK A01 T02690019  RH  020%=      5-min Rain = 0
KNH1 220105Z 19010KT 27/02 A2985 RMK A01 T02690019  RH  020%=      5-min Rain = 0
KNH1 220106Z 19010KT 27/02 A2985 RMK A01 T02680020  RH  020%=      5-min Rain = 0
KNH1 220107Z 19010KT 27/02 A2985 RMK A01 T02670020  RH  020%=      5-min Rain = 0
KNH1 220108Z 19010KT 27/02 A2985 RMK A01 T02660020  RH  020%=      5-min Rain = 0
KNH1 220109Z 19010KT 27/02 A2985 RMK A01 T02650019  RH  020%=      5-min Rain = 0
KNH1 220110Z 19010KT 26/02 A2985 RMK A01 T02640019  RH  020%=      5-min Rain = 0
KNH1 220111Z 19009KT 26/02 A2985 RMK A01 T02640019  RH  020%=      5-min Rain = 0
KNH1 220112Z 19009KT 26/02 A2985 RMK A01 T02620021  RH  021%=      5-min Rain = 0
KNH1 220113Z 19009KT 26/02 A2985 RMK A01 T02610021  RH  021%=      5-min Rain = 0
KNH1 220114Z 19009KT 26/02 A2985 RMK A01 T02600023  RH  021%=      5-min Rain = 0
KNH1 220115Z 19009KT 26/02 A2985 RMK A01 T02590023  RH  022%=      5-min Rain = 0
KNH1 220116Z 19009KT 26/02 A2985 RMK A01 T02580023  RH  022%=      5-min Rain = 0
KNH1 220117Z 19009KT 26/02 A2985 RMK A01 T02580024  RH  022%=      5-min Rain = 0
KNH1 220118Z 19008KT 26/03 A2985 RMK A01 T02570025  RH  022%=      5-min Rain = 0
KNH1 220119Z 19008KT 26/03 A2985 RMK A01 T02550025  RH  023%=      5-min Rain = 0
KNH1 220120Z 18008KT 25/03 A2985 RMK A01 T02530027  RH  023%=      5-min Rain = 0
KNH1 220121Z 19009KT 25/03 A2985 RMK A01 T02520029  RH  024%=      5-min Rain = 0
KNH1 220122Z 19009KT 25/03 A2985 RMK A01 T02510030  RH  024%=      5-min Rain = 0
KNH1 220123Z 19010KT 25/03 A2985 RMK A01 T02500031  RH  024%=      5-min Rain = 0
KNH1 220124Z 18010KT 25/03 A2985 RMK A01 T02490032  RH  024%=      5-min Rain = 0
KNH1 220125Z 19010KT 25/03 A2985 RMK A01 T02480031  RH  024%=      5-min Rain = 0
KNH1 220126Z 19009KT 25/03 A2985 RMK A01 T02480030  RH  024%=      5-min Rain = 0
KNH1 220127Z 19010KT 25/03 A2985 RMK A01 T02480030  RH  024%=      5-min Rain = 0
KNH1 220128Z 19010KT 25/03 A2985 RMK A01 T02470030  RH  024%=      5-min Rain = 0
KNH1 220129Z 19010KT 25/03 A2985 RMK A01 T02470030  RH  024%=      5-min Rain = 0
KNH1 220130Z 19010KT 25/03 A2985 RMK A01 T02470030  RH  024%=      5-min Rain = 0
KNH1 220131Z 19011KT 25/03 A2985 RMK A01 T02470029  RH  024%=      5-min Rain = 0
KNH1 220132Z 18010KT 25/03 A2985 RMK A01 T02470029  RH  024%=      5-min Rain = 0
KNH1 220133Z 18010KT 25/03 A2985 RMK A01 T02480029  RH  024%=      5-min Rain = 0
KNH1 220134Z 18010KT 25/03 A2985 RMK A01 T02470029  RH  024%=      5-min Rain = 0
KNH1 220135Z 18010KT 25/03 A2985 RMK A01 T02460028  RH  024%=      5-min Rain = 0
KNH1 220136Z 18010KT 25/03 A2985 RMK A01 T02450029  RH  024%=      5-min Rain = 0
KNH1 220137Z 19010KT 24/03 A2985 RMK A01 T02440029  RH  025%=      5-min Rain = 0
KNH1 220138Z 18010KT 24/03 A2985 RMK A01 T02430028  RH  025%=      5-min Rain = 0
KNH1 220139Z 19010KT 24/03 A2985 RMK A01 T02420029  RH  025%=      5-min Rain = 0
KNH1 220140Z 19009KT 24/03 A2985 RMK A01 T02410028  RH  025%=      5-min Rain = 0
KNH1 220141Z 19009KT 24/03 A2985 RMK A01 T02400029  RH  025%=      5-min Rain = 0
KNH1 220142Z 19009KT 24/03 A2985 RMK A01 T02400029  RH  025%=      5-min Rain = 0
KNH1 220143Z 18009KT 24/03 A2985 RMK A01 T02390030  RH  026%=      5-min Rain = 0
KNH1 220144Z 18009KT 24/03 A2986 RMK A01 T02380030  RH  026%=      5-min Rain = 0
KNH1 220145Z 18009KT 24/03 A2986 RMK A01 T02380031  RH  026%=      5-min Rain = 0
KNH1 220146Z 18010KT 24/03 A2986 RMK A01 T02370030  RH  026%=      5-min Rain = 0
KNH1 220147Z 18010KT 24/03 A2986 RMK A01 T02360031  RH  026%=      5-min Rain = 0
KNH1 220148Z 18010KT 24/03 A2986 RMK A01 T02350030  RH  026%=      5-min Rain = 0
KNH1 220149Z 18010KT 24/03 A2986 RMK A01 T02360031  RH  026%=      5-min Rain = 0
KNH1 220150Z 18009KT 24/03 A2986 RMK A01 T02350030  RH  026%=      5-min Rain = 0
KNH1 220151Z 18009KT 24/03 A2986 RMK A01 T02350030  RH  026%=      5-min Rain = 0
KNH1 220152Z 18008KT 24/03 A2986 RMK A01 T02350030  RH  026%=      5-min Rain = 0
KNH1 220153Z 18009KT 23/03 A2986 RMK A01 T02340031  RH  027%=      5-min Rain = 0
KNH1 220154Z 18009KT 23/03 A2986 RMK A01 T02330032  RH  027%=      5-min Rain = 0
KNH1 220155Z 18009KT 23/03 A2986 RMK A01 T02320033  RH  027%=      5-min Rain = 0
KNH1 220156Z 18009KT 23/03 A2986 RMK A01 T02310034  RH  027%=      5-min Rain = 0
KNH1 220157Z 18009KT 23/03 A2986 RMK A01 T02300034  RH  028%=      5-min Rain = 0
KNH1 220158Z 18008KT 23/03 A2986 RMK A01 T02290034  RH  028%=      5-min Rain = 0
KNH1 220159Z 18009KT 23/04 A2986 RMK A01 T02280035  RH  028%=      5-min Rain = 0
KNH1 220200Z 18008KT 23/04 A2986 RMK A01 T02280035  RH  028%=      5-min Rain = 0
KNH1 220201Z 18007KT 23/04 A2986 RMK A01 T02270035  RH  028%=      5-min Rain = 0
KNH1 220202Z 18007KT 23/04 A2986 RMK A01 T02270035  RH  029%=      5-min Rain = 0
KNH1 220203Z 18007KT 23/04 A2987 RMK A01 T02270035  RH  029%=      5-min Rain = 0
KNH1 220204Z 18007KT 23/04 A2987 RMK A01 T02260035  RH  029%=      5-min Rain = 0
KNH1 220205Z 18007KT 23/04 A2987 RMK A01 T02260035  RH  029%=      5-min Rain = 0
KNH1 220206Z 18007KT 23/04 A2987 RMK A01 T02260035  RH  029%=      5-min Rain = 0
KNH1 220207Z 18007KT 23/04 A2987 RMK A01 T02260035  RH  029%=      5-min Rain = 0
KNH1 220208Z 17007KT 23/04 A2987 RMK A01 T02250035  RH  029%=      5-min Rain = 0
KNH1 220209Z 18007KT 22/04 A2987 RMK A01 T02240036  RH  029%=      5-min Rain = 0
KNH1 220210Z 18007KT 22/04 A2987 RMK A01 T02240036  RH  029%=      5-min Rain = 0
KNH1 220211Z 18007KT 22/04 A2987 RMK A01 T02240037  RH  030%=      5-min Rain = 0
KNH1 220212Z 18007KT 22/04 A2987 RMK A01 T02230037  RH  030%=      5-min Rain = 0
KNH1 220213Z 18007KT 22/04 A2987 RMK A01 T02230037  RH  029%=      5-min Rain = 0
KNH1 220214Z 18008KT 22/04 A2987 RMK A01 T02230036  RH  029%=      5-min Rain = 0
KNH1 220215Z 18008KT 22/04 A2987 RMK A01 T02230035  RH  029%=      5-min Rain = 0
KNH1 220216Z 18008KT 22/04 A2987 RMK A01 T02230035  RH  029%=      5-min Rain = 0
KNH1 220217Z 18008KT 22/04 A2987 RMK A01 T02220035  RH  029%=      5-min Rain = 0
KNH1 220218Z 18008KT 22/03 A2987 RMK A01 T02210034  RH  029%=      5-min Rain = 0
KNH1 220219Z 18008KT 22/04 A2987 RMK A01 T02200035  RH  030%=      5-min Rain = 0
KNH1 220220Z 18008KT 22/04 A2987 RMK A01 T02200035  RH  030%=      5-min Rain = 0
KNH1 220221Z 18008KT 22/04 A2987 RMK A01 T02200035  RH  030%=      5-min Rain = 0
KNH1 220222Z 18008KT 22/04 A2987 RMK A01 T02190035  RH  030%=      5-min Rain = 0
KNH1 220223Z 18009KT 22/04 A2987 RMK A01 T02190035  RH  030%=      5-min Rain = 0
KNH1 220224Z 18009KT 22/04 A2987 RMK A01 T02180035  RH  030%=      5-min Rain = 0
KNH1 220225Z 18009KT 22/03 A2987 RMK A01 T02180034  RH  030%=      5-min Rain = 0
KNH1 220226Z 18009KT 22/04 A2988 RMK A01 T02180035  RH  030%=      5-min Rain = 0
KNH1 220227Z 18009KT 22/03 A2988 RMK A01 T02170034  RH  030%=      5-min Rain = 0
KNH1 220228Z 18009KT 22/03 A2988 RMK A01 T02170034  RH  030%=      5-min Rain = 0
KNH1 220229Z 18008KT 22/03 A2988 RMK A01 T02170034  RH  030%=      5-min Rain = 0
KNH1 220230Z 18009KT 22/03 A2988 RMK A01 T02170034  RH  030%=      5-min Rain = 0
KNH1 220231Z 18008KT 22/03 A2988 RMK A01 T02160034  RH  030%=      5-min Rain = 0
KNH1 220232Z 18008KT 22/03 A2988 RMK A01 T02160034  RH  030%=      5-min Rain = 0
KNH1 220233Z 18008KT 22/04 A2988 RMK A01 T02160035  RH  030%=      5-min Rain = 0
KNH1 220234Z 18008KT 22/04 A2988 RMK A01 T02160035  RH  030%=      5-min Rain = 0
KNH1 220235Z 18008KT 22/04 A2988 RMK A01 T02150035  RH  030%=      5-min Rain = 0
KNH1 220236Z 18008KT 22/03 A2988 RMK A01 T02150034  RH  031%=      5-min Rain = 0
KNH1 220237Z 18008KT 22/04 A2988 RMK A01 T02150035  RH  031%=      5-min Rain = 0
KNH1 220238Z 18009KT 22/03 A2988 RMK A01 T02150034  RH  030%=      5-min Rain = 0
KNH1 220239Z 18008KT 22/03 A2988 RMK A01 T02150034  RH  031%=      5-min Rain = 0
KNH1 220240Z 18008KT 21/04 A2988 RMK A01 T02140035  RH  031%=      5-min Rain = 0
KNH1 220241Z 18008KT 21/04 A2988 RMK A01 T02140035  RH  031%=      5-min Rain = 0
KNH1 220242Z 18008KT 21/04 A2989 RMK A01 T02130035  RH  031%=      5-min Rain = 0
KNH1 220243Z 18008KT 21/04 A2989 RMK A01 T02130036  RH  031%=      5-min Rain = 0
KNH1 220244Z 18009KT 21/04 A2989 RMK A01 T02120036  RH  031%=      5-min Rain = 0
KNH1 220245Z 18009KT 21/04 A2989 RMK A01 T02110036  RH  032%=      5-min Rain = 0
KNH1 220246Z 18009KT 21/04 A2989 RMK A01 T02100036  RH  032%=      5-min Rain = 0
KNH1 220247Z 19009KT 21/04 A2989 RMK A01 T02100036  RH  032%=      5-min Rain = 0
KNH1 220248Z 19008KT 21/04 A2989 RMK A01 T02080036  RH  032%=      5-min Rain = 0
KNH1 220249Z 19009KT 21/04 A2989 RMK A01 T02070037  RH  032%=      5-min Rain = 0
KNH1 220250Z 19009KT 21/04 A2989 RMK A01 T02060037  RH  033%=      5-min Rain = 0
KNH1 220251Z 19008KT 20/04 A2989 RMK A01 T02040035  RH  033%=      5-min Rain = 0
KNH1 220252Z 20008KT 20/04 A2989 RMK A01 T02030035  RH  033%=      5-min Rain = 0
KNH1 220253Z 20008KT 20/03 A2989 RMK A01 T02020034  RH  033%=      5-min Rain = 0
KNH1 220254Z 20008KT 20/03 A2989 RMK A01 T02010032  RH  033%=      5-min Rain = 0
KNH1 220255Z 20009KT 20/03 A2989 RMK A01 T02010030  RH  032%=      5-min Rain = 0
KNH1 220256Z 20009KT 20/03 A2989 RMK A01 T02010030  RH  032%=      5-min Rain = 0
KNH1 220257Z 20009KT 20/03 A2989 RMK A01 T02010028  RH  032%=      5-min Rain = 0
KNH1 220258Z 20009KT 20/03 A2989 RMK A01 T02010027  RH  032%=      5-min Rain = 0
KNH1 220259Z 21009KT 20/03 A2989 RMK A01 T02020027  RH  031%=      5-min Rain = 0
KNH1 220300Z 21009KT 20/03 A2989 RMK A01 T02040026  RH  031%=      5-min Rain = 0
KNH1 220301Z 21010KT 21/03 A2989 RMK A01 T02050025  RH  030%=      5-min Rain = 0
KNH1 220302Z 21009KT 21/03 A2989 RMK A01 T02050025  RH  030%=      5-min Rain = 0
KNH1 220303Z 21010KT 21/02 A2989 RMK A01 T02070024  RH  030%=      5-min Rain = 0
KNH1 220304Z 21010KT 21/02 A2989 RMK A01 T02070023  RH  030%=      5-min Rain = 0
KNH1 220305Z 21009KT 21/02 A2989 RMK A01 T02070023  RH  029%=      5-min Rain = 0
KNH1 220306Z 21008KT 21/02 A2989 RMK A01 T02070022  RH  029%=      5-min Rain = 0
KNH1 220307Z 20008KT 21/02 A299 RMK A01 T02070022  RH  029%=      5-min Rain = 0
KNH1 220308Z 20008KT 21/02 A299 RMK A01 T02050022  RH  030%=      5-min Rain = 0
KNH1 220309Z 20008KT 20/02 A299 RMK A01 T02030022  RH  030%=      5-min Rain = 0
KNH1 220310Z 19008KT 20/02 A299 RMK A01 T02020023  RH  030%=      5-min Rain = 0
KNH1 220311Z 20007KT 20/02 A299 RMK A01 T02010023  RH  031%=      5-min Rain = 0
KNH1 220312Z 20007KT 20/02 A299 RMK A01 T01990023  RH  031%=      5-min Rain = 0
KNH1 220313Z 20007KT 20/02 A299 RMK A01 T01980023  RH  031%=      5-min Rain = 0
KNH1 220314Z 20008KT 20/02 A299 RMK A01 T01960023  RH  031%=      5-min Rain = 0
KNH1 220315Z 20008KT 20/02 A299 RMK A01 T01950023  RH  032%=      5-min Rain = 0
KNH1 220316Z 20008KT 20/02 A299 RMK A01 T01950024  RH  032%=      5-min Rain = 0
KNH1 220317Z 20008KT 19/02 A299 RMK A01 T01940024  RH  032%=      5-min Rain = 0
KNH1 220318Z 20008KT 19/02 A299 RMK A01 T01940023  RH  032%=      5-min Rain = 0
KNH1 220319Z 20008KT 19/02 A299 RMK A01 T01930023  RH  032%=      5-min Rain = 0
KNH1 220320Z 20008KT 19/02 A299 RMK A01 T01920023  RH  032%=      5-min Rain = 0
KNH1 220321Z 20008KT 19/02 A299 RMK A01 T01920023  RH  033%=      5-min Rain = 0
KNH1 220322Z 19008KT 19/02 A299 RMK A01 T01910024  RH  033%=      5-min Rain = 0
KNH1 220323Z 19008KT 19/03 A299 RMK A01 T01910026  RH  033%=      5-min Rain = 0
KNH1 220324Z 19008KT 19/03 A299 RMK A01 T01910026  RH  033%=      5-min Rain = 0
KNH1 220325Z 20008KT 19/03 A299 RMK A01 T01910027  RH  034%=      5-min Rain = 0
KNH1 220326Z 20008KT 19/03 A299 RMK A01 T01910027  RH  033%=      5-min Rain = 0
KNH1 220327Z 20008KT 19/03 A299 RMK A01 T01900025  RH  033%=      5-min Rain = 0
KNH1 220328Z 20008KT 19/02 A299 RMK A01 T01890024  RH  033%=      5-min Rain = 0
KNH1 220329Z 20007KT 19/02 A2991 RMK A01 T01880023  RH  033%=      5-min Rain = 0
KNH1 220330Z 21008KT 19/02 A2991 RMK A01 T01860023  RH  034%=      5-min Rain = 0
KNH1 220331Z 21007KT 19/02 A2991 RMK A01 T01850022  RH  034%=      5-min Rain = 0
KNH1 220332Z 21007KT 19/02 A2991 RMK A01 T01860021  RH  033%=      5-min Rain = 0
KNH1 220333Z 21007KT 19/02 A2991 RMK A01 T01860021  RH  033%=      5-min Rain = 0
KNH1 220334Z 21006KT 19/02 A2991 RMK A01 T01860021  RH  033%=      5-min Rain = 0
KNH1 220335Z 21006KT 19/02 A2991 RMK A01 T01860020  RH  033%=      5-min Rain = 0
KNH1 220336Z 20006KT 19/02 A2991 RMK A01 T01850020  RH  033%=      5-min Rain = 0
KNH1 220337Z 20007KT 18/02 A2991 RMK A01 T01840019  RH  033%=      5-min Rain = 0
KNH1 220338Z 20007KT 18/02 A2991 RMK A01 T01840019  RH  033%=      5-min Rain = 0
KNH1 220339Z 20007KT 18/02 A2991 RMK A01 T01830019  RH  033%=      5-min Rain = 0
KNH1 220340Z 20007KT 18/02 A2991 RMK A01 T01830020  RH  034%=      5-min Rain = 0
KNH1 220341Z 20008KT 18/02 A2991 RMK A01 T01830021  RH  034%=      5-min Rain = 0
KNH1 220342Z 20008KT 18/02 A2991 RMK A01 T01830022  RH  034%=      5-min Rain = 0
KNH1 220343Z 20007KT 18/02 A2991 RMK A01 T01830022  RH  034%=      5-min Rain = 0
KNH1 220344Z 21007KT 18/02 A2991 RMK A01 T01820022  RH  034%=      5-min Rain = 0
KNH1 220345Z 21007KT 18/02 A2991 RMK A01 T01820021  RH  034%=      5-min Rain = 0
KNH1 220346Z 21007KT 18/02 A2991 RMK A01 T01810022  RH  034%=      5-min Rain = 0
KNH1 220347Z 20008KT 18/02 A2991 RMK A01 T01810023  RH  035%=      5-min Rain = 0
KNH1 220348Z 20008KT 18/02 A2991 RMK A01 T01820024  RH  035%=      5-min Rain = 0
KNH1 220349Z 21007KT 18/02 A2991 RMK A01 T01820023  RH  035%=      5-min Rain = 0
KNH1 220350Z 20008KT 18/02 A2991 RMK A01 T01830023  RH  034%=      5-min Rain = 0
KNH1 220351Z 20008KT 18/02 A2991 RMK A01 T01830023  RH  034%=      5-min Rain = 0
KNH1 220352Z 20008KT 18/02 A2991 RMK A01 T01830022  RH  034%=      5-min Rain = 0
KNH1 220353Z 20008KT 18/02 A2991 RMK A01 T01830022  RH  034%=      5-min Rain = 0
KNH1 220354Z 20008KT 18/02 A2991 RMK A01 T01830023  RH  034%=      5-min Rain = 0
KNH1 220355Z 20008KT 18/02 A2991 RMK A01 T01830023  RH  034%=      5-min Rain = 0
KNH1 220356Z 20008KT 18/02 A2991 RMK A01 T01830022  RH  034%=      5-min Rain = 0
KNH1 220357Z 20008KT 18/02 A2991 RMK A01 T01840022  RH  034%=      5-min Rain = 0
KNH1 220358Z 20008KT 18/02 A2991 RMK A01 T01840023  RH  034%=      5-min Rain = 0
KNH1 220359Z 20008KT 18/02 A2991 RMK A01 T01840022  RH  034%=      5-min Rain = 0
KNH1 220400Z 21008KT 18/02 A2991 RMK A01 T01840023  RH  034%=      5-min Rain = 0
KNH1 220401Z 20008KT 18/02 A2991 RMK A01 T01840022  RH  034%=      5-min Rain = 0
KNH1 220402Z 20008KT 18/02 A2991 RMK A01 T01830021  RH  034%=      5-min Rain = 0
KNH1 220403Z 20008KT 18/02 A2991 RMK A01 T01820020  RH  034%=      5-min Rain = 0
KNH1 220404Z 20008KT 18/02 A2991 RMK A01 T01820021  RH  034%=      5-min Rain = 0
KNH1 220405Z 20007KT 18/02 A2991 RMK A01 T01810021  RH  034%=      5-min Rain = 0
KNH1 220406Z 20007KT 18/02 A2991 RMK A01 T01810023  RH  035%=      5-min Rain = 0
KNH1 220407Z 20008KT 18/02 A2991 RMK A01 T01820024  RH  035%=      5-min Rain = 0
KNH1 220408Z 20008KT 18/02 A2991 RMK A01 T01830024  RH  035%=      5-min Rain = 0
KNH1 220409Z 20008KT 18/02 A2991 RMK A01 T01830022  RH  034%=      5-min Rain = 0
KNH1 220410Z 20008KT 18/02 A2991 RMK A01 T01830021  RH  034%=      5-min Rain = 0
KNH1 220411Z 20008KT 18/02 A2991 RMK A01 T01830021  RH  034%=      5-min Rain = 0
KNH1 220412Z 20008KT 18/02 A2991 RMK A01 T01820021  RH  034%=      5-min Rain = 0
KNH1 220413Z 20008KT 18/02 A2991 RMK A01 T01820021  RH  034%=      5-min Rain = 0
KNH1 220414Z 20008KT 18/02 A2991 RMK A01 T01810020  RH  034%=      5-min Rain = 0
KNH1 220415Z 20008KT 18/02 A2991 RMK A01 T01810020  RH  034%=      5-min Rain = 0
KNH1 220416Z 20008KT 18/02 A2991 RMK A01 T01800021  RH  034%=      5-min Rain = 0
KNH1 220417Z 20008KT 18/02 A2991 RMK A01 T01800022  RH  035%=      5-min Rain = 0
KNH1 220418Z 20008KT 18/02 A2991 RMK A01 T01800021  RH  035%=      5-min Rain = 0
KNH1 220419Z 20008KT 18/02 A2991 RMK A01 T01790022  RH  035%=      5-min Rain = 0
KNH1 220420Z 21008KT 18/02 A2991 RMK A01 T01790022  RH  035%=      5-min Rain = 0
KNH1 220421Z 21008KT 18/02 A2991 RMK A01 T01790022  RH  035%=      5-min Rain = 0
KNH1 220422Z 21008KT 18/02 A2991 RMK A01 T01790020  RH  034%=      5-min Rain = 0
KNH1 220423Z 21008KT 18/02 A2991 RMK A01 T01790019  RH  034%=      5-min Rain = 0
KNH1 220424Z 21008KT 18/02 A2991 RMK A01 T01800019  RH  034%=      5-min Rain = 0
KNH1 220425Z 21008KT 18/02 A2991 RMK A01 T01800019  RH  034%=      5-min Rain = 0
KNH1 220426Z 21008KT 18/02 A2991 RMK A01 T01790020  RH  034%=      5-min Rain = 0
KNH1 220427Z 21008KT 18/02 A2991 RMK A01 T01790020  RH  035%=      5-min Rain = 0
KNH1 220428Z 21008KT 18/02 A2991 RMK A01 T01780019  RH  035%=      5-min Rain = 0
KNH1 220429Z 21008KT 18/02 A2991 RMK A01 T01770019  RH  035%=      5-min Rain = 0
KNH1 220430Z 22007KT 18/02 A2991 RMK A01 T01780019  RH  035%=      5-min Rain = 0
KNH1 220431Z 22008KT 18/02 A2991 RMK A01 T01780019  RH  034%=      5-min Rain = 0
KNH1 220432Z 22007KT 18/02 A2991 RMK A01 T01780019  RH  034%=      5-min Rain = 0
KNH1 220433Z 23007KT 18/02 A2991 RMK A01 T01780020  RH  035%=      5-min Rain = 0
KNH1 220434Z 23007KT 18/02 A2991 RMK A01 T01780021  RH  035%=      5-min Rain = 0
KNH1 220435Z 23006KT 18/02 A2991 RMK A01 T01770023  RH  036%=      5-min Rain = 0
KNH1 220436Z 24006KT 18/03 A2991 RMK A01 T01760025  RH  036%=      5-min Rain = 0
KNH1 220437Z 24006KT 18/03 A2991 RMK A01 T01750027  RH  037%=      5-min Rain = 0
KNH1 220438Z 23006KT 18/03 A2991 RMK A01 T01750028  RH  037%=      5-min Rain = 0
KNH1 220439Z 20009KT 17/02 A2992 RMK A01 T01730024  RH  037%=      5-min Rain = 0
KNH1 220440Z 22010KT 17/02 A2991 RMK A01 T01700023  RH  037%=      5-min Rain = 0
KNH1 220441Z 23009KT 17/02 A2991 RMK A01 T01700024  RH  038%=      5-min Rain = 0
KNH1 220442Z 23008KT 17/02 A2991 RMK A01 T01710024  RH  037%=      5-min Rain = 0
KNH1 220443Z 22008KT 17/02 A2991 RMK A01 T01710023  RH  037%=      5-min Rain = 0
KNH1 220444Z 22008KT 17/02 A2991 RMK A01 T01710021  RH  037%=      5-min Rain = 0
KNH1 220445Z 22008KT 17/02 A2991 RMK A01 T01710022  RH  037%=      5-min Rain = 0
KNH1 220446Z 19009KT 17/02 A2992 RMK A01 T01710023  RH  037%=      5-min Rain = 0
KNH1 220447Z 18012KT 17/02 A2992 RMK A01 T01710024  RH  037%=      5-min Rain = 0
KNH1 220448Z 18012KT 17/03 A2992 RMK A01 T01730026  RH  037%=      5-min Rain = 0
KNH1 220449Z 19011KT 18/03 A2992 RMK A01 T01750027  RH  037%=      5-min Rain = 0
KNH1 220450Z 19012KT 18/03 A2992 RMK A01 T01750025  RH  037%=      5-min Rain = 0
KNH1 220451Z 21010KT 18/02 A2992 RMK A01 T01760024  RH  036%=      5-min Rain = 0
KNH1 220452Z 21011KT 18/02 A2992 RMK A01 T01770023  RH  036%=      5-min Rain = 0
KNH1 220453Z 19011KT 18/02 A2992 RMK A01 T01790022  RH  035%=      5-min Rain = 0
KNH1 220454Z 18010KT 18/02 A2992 RMK A01 T01790024  RH  035%=      5-min Rain = 0
KNH1 220455Z 19013KT 18/03 A2992 RMK A01 T01790025  RH  036%=      5-min Rain = 0
KNH1 220456Z 19014KT 18/03 A2992 RMK A01 T01820025  RH  035%=      5-min Rain = 0
KNH1 220457Z 19014KT 18/02 A2992 RMK A01 T01830024  RH  034%=      5-min Rain = 0
KNH1 220458Z 19013KT 19/02 A2992 RMK A01 T01850023  RH  034%=      5-min Rain = 0
KNH1 220459Z 19012KT 19/02 A2992 RMK A01 T01870023  RH  034%=      5-min Rain = 0

Page generated in 0.1298 seconds.